Time,TemperatureF,DewpointF,PressureIn,WindDirection,WindDirectionDegrees,WindSpeedMPH,WindSpeedGustMPH,Humidity,HourlyPrecipIn,Conditions,Clouds,dailyrainin,SoftwareType,DateUTC
2013-02-10 00:00:00,12.7,10.6,30.15,NNE,24,1.0,1.0,91,0.00,,,0.00,Wunderground v.1.15,2013-02-10 05:00:00,
2013-02-10 00:02:00,12.8,10.7,30.15,NNE,24,0.0,7.0,91,0.00,,,0.00,Wunderground v.1.15,2013-02-10 05:02:00,
2013-02-10 00:03:00,12.7,10.6,30.15,NNE,24,0.0,7.0,91,0.00,,,0.00,Wunderground v.1.15,2013-02-10 05:03:00,
2013-02-10 00:05:00,12.8,10.7,30.15,NNE,24,0.0,7.0,91,0.00,,,0.00,Wunderground v.1.15,2013-02-10 05:05:00,
2013-02-10 00:10:00,12.8,10.7,30.15,NNE,30,0.0,7.0,91,0.00,,,0.00,Wunderground v.1.15,2013-02-10 05:10:00,
2013-02-10 00:12:00,12.8,10.7,30.15,NNE,30,0.0,7.0,91,0.00,,,0.00,Wunderground v.1.15,2013-02-10 05:12:00,
2013-02-10 00:13:00,12.7,10.6,30.15,NNE,30,0.0,7.0,91,0.00,,,0.00,Wunderground v.1.15,2013-02-10 05:13:00,
2013-02-10 00:18:00,12.7,10.6,30.15,NNE,30,0.0,7.0,91,0.00,,,0.00,Wunderground v.1.15,2013-02-10 05:18:00,
2013-02-10 00:19:00,12.7,10.6,30.15,NNE,30,0.0,7.0,91,0.00,,,0.00,Wunderground v.1.15,2013-02-10 05:19:00,
2013-02-10 00:22:00,12.7,10.6,30.15,NNE,30,0.0,7.0,91,0.00,,,0.00,Wunderground v.1.15,2013-02-10 05:22:00,
2013-02-10 00:23:00,12.7,10.6,30.15,NNE,30,0.0,7.0,91,0.00,,,0.00,Wunderground v.1.15,2013-02-10 05:23:00,
2013-02-10 00:25:00,12.7,10.6,30.15,NNE,30,0.0,7.0,91,0.00,,,0.00,Wunderground v.1.15,2013-02-10 05:25:00,
2013-02-10 00:26:00,12.6,10.5,30.15,NNE,30,0.0,7.0,91,0.00,,,0.00,Wunderground v.1.15,2013-02-10 05:26:00,
2013-02-10 00:29:00,12.6,10.5,30.15,NNE,30,0.0,7.0,91,0.00,,,0.00,Wunderground v.1.15,2013-02-10 05:29:00,
2013-02-10 00:30:00,12.7,10.6,30.15,NNE,30,0.0,7.0,91,0.00,,,0.00,Wunderground v.1.15,2013-02-10 05:30:00,
2013-02-10 00:33:00,12.6,10.5,30.15,NNE,30,1.0,7.0,91,0.00,,,0.00,Wunderground v.1.15,2013-02-10 05:33:00,
2013-02-10 00:35:00,12.6,10.5,30.15,NNE,30,1.0,7.0,91,0.00,,,0.00,Wunderground v.1.15,2013-02-10 05:35:00,
2013-02-10 00:37:00,12.6,10.5,30.15,NNE,30,1.0,7.0,91,0.00,,,0.00,Wunderground v.1.15,2013-02-10 05:37:00,
2013-02-10 00:41:00,12.6,10.5,30.15,NNE,30,0.0,7.0,91,0.00,,,0.00,Wunderground v.1.15,2013-02-10 05:41:00,
2013-02-10 00:45:00,12.6,10.5,30.16,NNE,30,0.0,7.0,91,0.00,,,0.00,Wunderground v.1.15,2013-02-10 05:45:00,
2013-02-10 00:46:00,12.6,10.5,30.16,NNE,30,0.0,7.0,91,0.00,,,0.00,Wunderground v.1.15,2013-02-10 05:46:00,
2013-02-10 00:47:00,12.6,10.5,30.16,NNE,30,0.0,7.0,91,0.00,,,0.00,Wunderground v.1.15,2013-02-10 05:47:00,
2013-02-10 00:50:00,12.6,10.5,30.16,NNE,30,0.0,7.0,91,0.00,,,0.00,Wunderground v.1.15,2013-02-10 05:50:00,
2013-02-10 00:52:00,12.6,10.5,30.16,NNE,30,0.0,7.0,91,0.00,,,0.00,Wunderground v.1.15,2013-02-10 05:52:00,
2013-02-10 00:56:00,12.6,10.5,30.16,NNE,30,0.0,7.0,91,0.00,,,0.00,Wunderground v.1.15,2013-02-10 05:56:00,
2013-02-10 00:57:00,12.6,10.5,30.16,NNE,30,0.0,7.0,91,0.00,,,0.00,Wunderground v.1.15,2013-02-10 05:57:00,
2013-02-10 00:59:00,12.6,10.5,30.16,NNE,30,0.0,7.0,91,0.00,,,0.00,Wunderground v.1.15,2013-02-10 05:59:00,
2013-02-10 01:00:00,12.6,10.5,30.16,NNE,30,0.0,3.0,91,0.00,,,0.00,Wunderground v.1.15,2013-02-10 06:00:00,
2013-02-10 01:02:00,12.6,10.5,30.16,NNE,30,0.0,3.0,91,0.00,,,0.00,Wunderground v.1.15,2013-02-10 06:02:00,
2013-02-10 01:05:00,12.5,10.4,30.16,NNE,30,0.0,3.0,91,0.00,,,0.00,Wunderground v.1.15,2013-02-10 06:05:00,
2013-02-10 01:07:00,12.5,10.4,30.16,NNE,26,0.0,3.0,91,0.00,,,0.00,Wunderground v.1.15,2013-02-10 06:07:00,
2013-02-10 01:08:00,12.5,10.4,30.16,NNE,26,0.0,3.0,91,0.00,,,0.00,Wunderground v.1.15,2013-02-10 06:08:00,
2013-02-10 01:11:00,12.5,10.4,30.16,NNE,26,0.0,3.0,91,0.00,,,0.00,Wunderground v.1.15,2013-02-10 06:11:00,
2013-02-10 01:13:00,12.5,10.4,30.16,NNE,26,0.0,3.0,91,0.00,,,0.00,Wunderground v.1.15,2013-02-10 06:13:00,
2013-02-10 01:14:00,12.4,10.3,30.16,NNE,26,0.0,3.0,91,0.00,,,0.00,Wunderground v.1.15,2013-02-10 06:14:00,
2013-02-10 01:17:00,12.4,10.3,30.16,NNE,26,0.0,3.0,91,0.00,,,0.00,Wunderground v.1.15,2013-02-10 06:17:00,
2013-02-10 01:18:00,12.4,10.3,30.16,NNE,26,0.0,3.0,91,0.00,,,0.00,Wunderground v.1.15,2013-02-10 06:18:00,
2013-02-10 01:19:00,12.4,10.3,30.16,NNE,26,0.0,3.0,91,0.00,,,0.00,Wunderground v.1.15,2013-02-10 06:19:00,
2013-02-10 01:20:00,12.4,10.3,30.16,NNE,26,0.0,3.0,91,0.00,,,0.00,Wunderground v.1.15,2013-02-10 06:20:00,
2013-02-10 01:23:00,12.4,10.3,30.16,NNW,335,1.0,6.0,91,0.00,,,0.00,Wunderground v.1.15,2013-02-10 06:23:00,
2013-02-10 01:24:00,12.4,10.3,30.16,North,350,1.0,6.0,91,0.00,,,0.00,Wunderground v.1.15,2013-02-10 06:24:00,
2013-02-10 01:25:00,12.4,10.3,30.16,North,11,2.0,6.0,91,0.00,,,0.00,Wunderground v.1.15,2013-02-10 06:25:00,
2013-02-10 01:28:00,12.4,10.0,30.16,NNE,12,2.0,6.0,90,0.00,,,0.00,Wunderground v.1.15,2013-02-10 06:28:00,
2013-02-10 01:29:00,12.4,10.0,30.16,NE,50,2.0,6.0,90,0.00,,,0.00,Wunderground v.1.15,2013-02-10 06:29:00,
2013-02-10 01:31:00,12.4,10.0,30.16,NNE,13,2.0,3.0,90,0.00,,,0.00,Wunderground v.1.15,2013-02-10 06:31:00,
2013-02-10 01:34:00,12.5,10.4,30.16,NNE,14,1.0,4.0,91,0.00,,,0.00,Wunderground v.1.15,2013-02-10 06:34:00,
2013-02-10 01:36:00,12.5,10.4,30.17,North,355,1.0,4.0,91,0.00,,,0.00,Wunderground v.1.15,2013-02-10 06:36:00,
2013-02-10 01:38:00,12.5,10.4,30.17,NE,38,1.0,4.0,91,0.00,,,0.00,Wunderground v.1.15,2013-02-10 06:38:00,
2013-02-10 01:43:00,12.5,10.1,30.17,NNE,31,2.0,5.0,90,0.00,,,0.00,Wunderground v.1.15,2013-02-10 06:43:00,
2013-02-10 01:44:00,12.5,10.1,30.17,NNE,31,2.0,5.0,90,0.00,,,0.00,Wunderground v.1.15,2013-02-10 06:44:00,
2013-02-10 01:45:00,12.5,10.1,30.17,NNE,32,2.0,5.0,90,0.00,,,0.00,Wunderground v.1.15,2013-02-10 06:45:00,
2013-02-10 01:46:00,12.5,10.1,30.17,NNE,32,2.0,5.0,90,0.00,,,0.00,Wunderground v.1.15,2013-02-10 06:46:00,
2013-02-10 01:49:00,12.5,10.1,30.17,North,11,2.0,5.0,90,0.00,,,0.00,Wunderground v.1.15,2013-02-10 06:49:00,
2013-02-10 01:51:00,12.5,10.1,30.17,NNE,29,3.0,4.0,90,0.00,,,0.00,Wunderground v.1.15,2013-02-10 06:51:00,
2013-02-10 01:52:00,12.5,10.1,30.17,NNE,29,3.0,4.0,90,0.00,,,0.00,Wunderground v.1.15,2013-02-10 06:52:00,
2013-02-10 01:56:00,12.6,10.2,30.17,NNE,29,3.0,4.0,90,0.00,,,0.00,Wunderground v.1.15,2013-02-10 06:56:00,
2013-02-10 01:57:00,12.6,10.2,30.17,NNE,30,2.0,4.0,90,0.00,,,0.00,Wunderground v.1.15,2013-02-10 06:57:00,
2013-02-10 02:01:00,12.6,10.2,30.17,NNE,32,2.0,7.0,90,0.00,,,0.00,Wunderground v.1.15,2013-02-10 07:01:00,
2013-02-10 02:02:00,12.6,10.2,30.17,NNE,32,1.0,7.0,90,0.00,,,0.00,Wunderground v.1.15,2013-02-10 07:02:00,
2013-02-10 02:04:00,12.6,10.2,30.17,NNE,33,1.0,7.0,90,0.00,,,0.00,Wunderground v.1.15,2013-02-10 07:04:00,
2013-02-10 02:07:00,12.6,10.2,30.17,NNE,32,1.0,7.0,90,0.00,,,0.00,Wunderground v.1.15,2013-02-10 07:07:00,
2013-02-10 02:10:00,12.6,10.2,30.17,NNE,32,1.0,1.0,90,0.00,,,0.00,Wunderground v.1.15,2013-02-10 07:10:00,
2013-02-10 02:11:00,12.6,10.2,30.17,NNE,32,1.0,7.0,90,0.00,,,0.00,Wunderground v.1.15,2013-02-10 07:11:00,
2013-02-10 02:14:00,12.6,10.2,30.17,NNE,32,0.0,7.0,90,0.00,,,0.00,Wunderground v.1.15,2013-02-10 07:14:00,
2013-02-10 02:16:00,12.6,10.2,30.17,NNE,32,0.0,7.0,90,0.00,,,0.00,Wunderground v.1.15,2013-02-10 07:16:00,
2013-02-10 02:17:00,12.6,10.2,30.17,NNE,32,0.0,7.0,90,0.00,,,0.00,Wunderground v.1.15,2013-02-10 07:17:00,
2013-02-10 02:19:00,12.6,10.2,30.17,NNE,32,0.0,7.0,90,0.00,,,0.00,Wunderground v.1.15,2013-02-10 07:19:00,
2013-02-10 02:21:00,12.6,10.2,30.18,NNE,32,0.0,7.0,90,0.00,,,0.00,Wunderground v.1.15,2013-02-10 07:21:00,
2013-02-10 02:22:00,12.5,10.4,30.17,NNE,32,0.0,7.0,91,0.00,,,0.00,Wunderground v.1.15,2013-02-10 07:22:00,
2013-02-10 02:23:00,12.5,10.4,30.18,NNE,32,0.0,7.0,91,0.00,,,0.00,Wunderground v.1.15,2013-02-10 07:23:00,
2013-02-10 02:27:00,12.5,10.1,30.18,NNE,32,0.0,7.0,90,0.00,,,0.00,Wunderground v.1.15,2013-02-10 07:27:00,
2013-02-10 02:29:00,12.4,10.0,30.18,NNE,32,0.0,7.0,90,0.00,,,0.00,Wunderground v.1.15,2013-02-10 07:29:00,
2013-02-10 02:30:00,12.3,9.9,30.18,NNE,32,0.0,7.0,90,0.00,,,0.00,Wunderground v.1.15,2013-02-10 07:30:00,
2013-02-10 02:32:00,12.3,9.9,30.17,NNE,32,0.0,7.0,90,0.00,,,0.00,Wunderground v.1.15,2013-02-10 07:32:00,
2013-02-10 02:35:00,12.2,9.8,30.17,NNE,32,0.0,7.0,90,0.00,,,0.00,Wunderground v.1.15,2013-02-10 07:35:00,
2013-02-10 02:36:00,12.2,9.8,30.18,NNE,32,0.0,7.0,90,0.00,,,0.00,Wunderground v.1.15,2013-02-10 07:36:00,
2013-02-10 02:38:00,12.1,9.7,30.18,NNE,32,0.0,7.0,90,0.00,,,0.00,Wunderground v.1.15,2013-02-10 07:38:00,
2013-02-10 02:41:00,12.0,9.6,30.18,NNE,32,0.0,7.0,90,0.00,,,0.00,Wunderground v.1.15,2013-02-10 07:41:00,
2013-02-10 02:42:00,12.0,9.6,30.18,NNE,32,0.0,7.0,90,0.00,,,0.00,Wunderground v.1.15,2013-02-10 07:42:00,
2013-02-10 02:43:00,11.9,9.5,30.18,NNE,32,0.0,7.0,90,0.00,,,0.00,Wunderground v.1.15,2013-02-10 07:43:00,
2013-02-10 02:44:00,11.9,9.5,30.18,NNE,32,0.0,7.0,90,0.00,,,0.00,Wunderground v.1.15,2013-02-10 07:44:00,
2013-02-10 02:49:00,11.8,9.4,30.18,NNE,32,1.0,7.0,90,0.00,,,0.00,Wunderground v.1.15,2013-02-10 07:49:00,
2013-02-10 02:50:00,11.7,9.3,30.18,NNE,32,1.0,7.0,90,0.00,,,0.00,Wunderground v.1.15,2013-02-10 07:50:00,
2013-02-10 02:51:00,11.7,9.3,30.18,NNE,32,1.0,7.0,90,0.00,,,0.00,Wunderground v.1.15,2013-02-10 07:51:00,
2013-02-10 02:54:00,11.7,9.3,30.18,NNE,32,1.0,7.0,90,0.00,,,0.00,Wunderground v.1.15,2013-02-10 07:54:00,
2013-02-10 02:55:00,11.7,9.3,30.18,NNE,32,2.0,7.0,90,0.00,,,0.00,Wunderground v.1.15,2013-02-10 07:55:00,
2013-02-10 02:57:00,11.7,9.3,30.18,NNE,32,1.0,7.0,90,0.00,,,0.00,Wunderground v.1.15,2013-02-10 07:57:00,
2013-02-10 02:59:00,11.7,9.3,30.18,NNE,32,1.0,7.0,90,0.00,,,0.00,Wunderground v.1.15,2013-02-10 07:59:00,
2013-02-10 03:01:00,11.7,9.3,30.17,NE,41,1.0,3.0,90,0.00,,,0.00,Wunderground v.1.15,2013-02-10 08:01:00,
2013-02-10 03:04:00,11.7,9.3,30.18,NE,38,2.0,3.0,90,0.00,,,0.00,Wunderground v.1.15,2013-02-10 08:04:00,
2013-02-10 03:05:00,11.7,9.3,30.18,NE,38,2.0,3.0,90,0.00,,,0.00,Wunderground v.1.15,2013-02-10 08:05:00,
2013-02-10 03:06:00,11.8,9.4,30.18,NE,38,2.0,3.0,90,0.00,,,0.00,Wunderground v.1.15,2013-02-10 08:06:00,
2013-02-10 03:07:00,11.8,9.4,30.18,NE,38,2.0,3.0,90,0.00,,,0.00,Wunderground v.1.15,2013-02-10 08:07:00,
2013-02-10 03:11:00,11.9,9.5,30.18,NE,44,2.0,3.0,90,0.00,,,0.00,Wunderground v.1.15,2013-02-10 08:11:00,
2013-02-10 03:12:00,11.9,9.5,30.18,NE,44,1.0,3.0,90,0.00,,,0.00,Wunderground v.1.15,2013-02-10 08:12:00,
2013-02-10 03:13:00,11.9,9.5,30.18,NE,44,1.0,3.0,90,0.00,,,0.00,Wunderground v.1.15,2013-02-10 08:13:00,
2013-02-10 03:15:00,11.9,9.5,30.18,NE,44,1.0,3.0,90,0.00,,,0.00,Wunderground v.1.15,2013-02-10 08:15:00,
2013-02-10 03:17:00,12.0,9.6,30.18,NE,44,1.0,3.0,90,0.00,,,0.00,Wunderground v.1.15,2013-02-10 08:17:00,
2013-02-10 03:19:00,12.0,9.6,30.18,NE,44,0.0,3.0,90,0.00,,,0.00,Wunderground v.1.15,2013-02-10 08:19:00,
2013-02-10 03:20:00,12.0,9.6,30.18,NE,44,0.0,3.0,90,0.00,,,0.00,Wunderground v.1.15,2013-02-10 08:20:00,
2013-02-10 03:23:00,12.0,9.6,30.18,NE,44,1.0,3.0,90,0.00,,,0.00,Wunderground v.1.15,2013-02-10 08:23:00,
2013-02-10 03:25:00,12.0,9.6,30.18,NE,44,1.0,3.0,90,0.00,,,0.00,Wunderground v.1.15,2013-02-10 08:25:00,
2013-02-10 03:26:00,12.0,9.6,30.18,NE,44,0.0,3.0,90,0.00,,,0.00,Wunderground v.1.15,2013-02-10 08:26:00,
2013-02-10 03:28:00,12.0,9.6,30.18,NE,44,0.0,3.0,90,0.00,,,0.00,Wunderground v.1.15,2013-02-10 08:28:00,
2013-02-10 03:30:00,11.9,9.5,30.18,NE,44,0.0,3.0,90,0.00,,,0.00,Wunderground v.1.15,2013-02-10 08:30:00,
2013-02-10 03:31:00,11.9,9.5,30.18,NE,44,0.0,3.0,90,0.00,,,0.00,Wunderground v.1.15,2013-02-10 08:31:00,
2013-02-10 03:33:00,11.9,9.5,30.18,NE,44,0.0,3.0,90,0.00,,,0.00,Wunderground v.1.15,2013-02-10 08:33:00,
2013-02-10 03:34:00,11.9,9.5,30.18,NE,44,0.0,3.0,90,0.00,,,0.00,Wunderground v.1.15,2013-02-10 08:34:00,
2013-02-10 03:36:00,11.9,9.5,30.18,NE,43,0.0,3.0,90,0.00,,,0.00,Wunderground v.1.15,2013-02-10 08:36:00,
2013-02-10 03:39:00,11.9,9.5,30.18,NE,43,0.0,3.0,90,0.00,,,0.00,Wunderground v.1.15,2013-02-10 08:39:00,
2013-02-10 03:40:00,11.9,9.5,30.18,NE,43,0.0,3.0,90,0.00,,,0.00,Wunderground v.1.15,2013-02-10 08:40:00,
2013-02-10 03:45:00,11.8,9.4,30.18,NE,43,0.0,3.0,90,0.00,,,0.00,Wunderground v.1.15,2013-02-10 08:45:00,
2013-02-10 03:46:00,11.8,9.4,30.18,NE,43,0.0,3.0,90,0.00,,,0.00,Wunderground v.1.15,2013-02-10 08:46:00,
2013-02-10 03:48:00,11.8,9.4,30.19,NE,43,0.0,3.0,90,0.00,,,0.00,Wunderground v.1.15,2013-02-10 08:48:00,
2013-02-10 03:51:00,11.7,9.3,30.19,NE,43,0.0,3.0,90,0.00,,,0.00,Wunderground v.1.15,2013-02-10 08:51:00,
2013-02-10 03:52:00,11.7,9.3,30.19,NE,43,0.0,3.0,90,0.00,,,0.00,Wunderground v.1.15,2013-02-10 08:52:00,
2013-02-10 03:55:00,11.7,9.3,30.19,NE,43,0.0,3.0,90,0.00,,,0.00,Wunderground v.1.15,2013-02-10 08:55:00,
2013-02-10 03:56:00,11.7,9.3,30.19,NE,43,0.0,3.0,90,0.00,,,0.00,Wunderground v.1.15,2013-02-10 08:56:00,
2013-02-10 03:57:00,11.6,9.2,30.19,NE,43,0.0,3.0,90,0.00,,,0.00,Wunderground v.1.15,2013-02-10 08:57:00,
2013-02-10 04:00:00,11.6,9.2,30.19,NE,43,1.0,1.0,90,0.00,,,0.00,Wunderground v.1.15,2013-02-10 09:00:00,
2013-02-10 04:02:00,11.6,9.2,30.19,NE,43,1.0,3.0,90,0.00,,,0.00,Wunderground v.1.15,2013-02-10 09:02:00,
2013-02-10 04:04:00,11.6,9.2,30.19,NE,43,1.0,3.0,90,0.00,,,0.00,Wunderground v.1.15,2013-02-10 09:04:00,
2013-02-10 04:05:00,11.6,9.2,30.19,NE,43,1.0,4.0,90,0.00,,,0.00,Wunderground v.1.15,2013-02-10 09:05:00,
2013-02-10 04:07:00,11.6,9.2,30.19,NE,42,1.0,4.0,90,0.00,,,0.00,Wunderground v.1.15,2013-02-10 09:07:00,
2013-02-10 04:09:00,11.6,9.2,30.19,NE,42,1.0,4.0,90,0.00,,,0.00,Wunderground v.1.15,2013-02-10 09:09:00,
2013-02-10 04:10:00,11.6,9.2,30.20,NE,42,1.0,1.0,90,0.00,,,0.00,Wunderground v.1.15,2013-02-10 09:10:00,
2013-02-10 04:11:00,11.6,9.2,30.20,NE,42,1.0,3.0,90,0.00,,,0.00,Wunderground v.1.15,2013-02-10 09:11:00,
2013-02-10 04:14:00,11.6,9.2,30.20,NE,42,1.0,3.0,90,0.00,,,0.00,Wunderground v.1.15,2013-02-10 09:14:00,
2013-02-10 04:15:00,11.6,9.2,30.20,NE,42,1.0,3.0,90,0.00,,,0.00,Wunderground v.1.15,2013-02-10 09:15:00,
2013-02-10 04:16:00,11.5,9.1,30.20,NE,42,1.0,3.0,90,0.00,,,0.00,Wunderground v.1.15,2013-02-10 09:16:00,
2013-02-10 04:20:00,11.5,9.1,30.21,NE,42,1.0,3.0,90,0.00,,,0.00,Wunderground v.1.15,2013-02-10 09:20:00,
2013-02-10 04:22:00,11.5,9.1,30.21,NE,42,1.0,3.0,90,0.00,,,0.00,Wunderground v.1.15,2013-02-10 09:22:00,
2013-02-10 04:23:00,11.5,9.1,30.21,NE,42,1.0,3.0,90,0.00,,,0.00,Wunderground v.1.15,2013-02-10 09:23:00,
2013-02-10 04:24:00,11.5,9.1,30.21,NE,42,1.0,3.0,90,0.00,,,0.00,Wunderground v.1.15,2013-02-10 09:24:00,
2013-02-10 04:27:00,11.5,9.1,30.21,NE,42,2.0,3.0,90,0.00,,,0.00,Wunderground v.1.15,2013-02-10 09:27:00,
2013-02-10 04:29:00,11.5,9.1,30.21,NE,42,2.0,3.0,90,0.00,,,0.00,Wunderground v.1.15,2013-02-10 09:29:00,
2013-02-10 04:35:00,11.5,9.1,30.21,NE,42,1.0,3.0,90,0.00,,,0.00,Wunderground v.1.15,2013-02-10 09:35:00,
2013-02-10 04:36:00,11.5,9.1,30.21,NE,42,1.0,3.0,90,0.00,,,0.00,Wunderground v.1.15,2013-02-10 09:36:00,
2013-02-10 04:37:00,11.4,9.0,30.21,NE,42,1.0,3.0,90,0.00,,,0.00,Wunderground v.1.15,2013-02-10 09:37:00,
2013-02-10 04:41:00,11.3,8.9,30.21,NE,42,1.0,3.0,90,0.00,,,0.00,Wunderground v.1.15,2013-02-10 09:41:00,
2013-02-10 04:42:00,11.2,8.8,30.21,NE,42,1.0,3.0,90,0.00,,,0.00,Wunderground v.1.15,2013-02-10 09:42:00,
2013-02-10 04:43:00,11.2,8.8,30.21,NE,42,1.0,3.0,90,0.00,,,0.00,Wunderground v.1.15,2013-02-10 09:43:00,
2013-02-10 04:46:00,11.0,8.6,30.22,NE,42,1.0,3.0,90,0.00,,,0.00,Wunderground v.1.15,2013-02-10 09:46:00,
2013-02-10 04:47:00,11.0,8.6,30.22,NE,42,1.0,3.0,90,0.00,,,0.00,Wunderground v.1.15,2013-02-10 09:47:00,
2013-02-10 04:49:00,10.9,8.5,30.22,NE,42,1.0,3.0,90,0.00,,,0.00,Wunderground v.1.15,2013-02-10 09:49:00,
2013-02-10 04:54:00,10.8,8.4,30.22,NNE,31,2.0,5.0,90,0.00,,,0.00,Wunderground v.1.15,2013-02-10 09:54:00,
2013-02-10 04:55:00,10.8,8.4,30.22,NNE,31,2.0,5.0,90,0.00,,,0.00,Wunderground v.1.15,2013-02-10 09:55:00,
2013-02-10 04:57:00,10.8,8.4,30.22,NNE,32,2.0,5.0,90,0.00,,,0.00,Wunderground v.1.15,2013-02-10 09:57:00,
2013-02-10 04:59:00,10.8,8.4,30.22,NNE,32,3.0,5.0,90,0.00,,,0.00,Wunderground v.1.15,2013-02-10 09:59:00,
2013-02-10 05:00:00,10.8,8.4,30.22,NNE,32,3.0,3.0,90,0.00,,,0.00,Wunderground v.1.15,2013-02-10 10:00:00,
2013-02-10 05:01:00,10.8,8.4,30.22,NNE,32,3.0,5.0,90,0.00,,,0.00,Wunderground v.1.15,2013-02-10 10:01:00,
2013-02-10 05:06:00,10.7,8.1,30.23,NNE,31,3.0,5.0,89,0.00,,,0.00,Wunderground v.1.15,2013-02-10 10:06:00,
2013-02-10 05:07:00,10.7,8.1,30.23,NNE,31,2.0,5.0,89,0.00,,,0.00,Wunderground v.1.15,2013-02-10 10:07:00,
2013-02-10 05:11:00,10.7,8.3,30.23,NNE,31,1.0,5.0,90,0.00,,,0.00,Wunderground v.1.15,2013-02-10 10:11:00,
2013-02-10 05:12:00,10.7,8.3,30.23,NNE,31,1.0,5.0,90,0.00,,,0.00,Wunderground v.1.15,2013-02-10 10:12:00,
2013-02-10 05:15:00,10.5,8.1,30.23,NNE,31,1.0,5.0,90,0.00,,,0.00,Wunderground v.1.15,2013-02-10 10:15:00,
2013-02-10 05:19:00,10.3,7.7,30.23,NNE,31,0.0,5.0,89,0.00,,,0.00,Wunderground v.1.15,2013-02-10 10:19:00,
2013-02-10 05:22:00,10.0,7.4,30.23,NNE,31,0.0,5.0,89,0.00,,,0.00,Wunderground v.1.15,2013-02-10 10:22:00,
2013-02-10 05:23:00,9.9,7.3,30.23,NNE,31,0.0,5.0,89,0.00,,,0.00,Wunderground v.1.15,2013-02-10 10:23:00,
2013-02-10 05:24:00,9.8,7.2,30.23,NNE,31,0.0,5.0,89,0.00,,,0.00,Wunderground v.1.15,2013-02-10 10:24:00,
2013-02-10 05:27:00,9.5,6.9,30.23,NNE,31,0.0,5.0,89,0.00,,,0.00,Wunderground v.1.15,2013-02-10 10:27:00,
2013-02-10 05:28:00,9.5,6.9,30.23,NNE,31,0.0,5.0,89,0.00,,,0.00,Wunderground v.1.15,2013-02-10 10:28:00,
2013-02-10 05:29:00,9.4,6.8,30.23,NNE,31,0.0,5.0,89,0.00,,,0.00,Wunderground v.1.15,2013-02-10 10:29:00,
2013-02-10 05:30:00,9.3,6.7,30.23,NNE,31,0.0,5.0,89,0.00,,,0.00,Wunderground v.1.15,2013-02-10 10:30:00,
2013-02-10 05:33:00,9.2,6.6,30.23,NNE,31,1.0,5.0,89,0.00,,,0.00,Wunderground v.1.15,2013-02-10 10:33:00,
2013-02-10 05:35:00,9.1,6.5,30.23,NNE,25,1.0,5.0,89,0.00,,,0.00,Wunderground v.1.15,2013-02-10 10:35:00,
2013-02-10 05:37:00,9.0,6.4,30.23,NNE,28,1.0,5.0,89,0.00,,,0.00,Wunderground v.1.15,2013-02-10 10:37:00,
2013-02-10 05:39:00,9.0,6.4,30.23,NE,34,1.0,5.0,89,0.00,,,0.00,Wunderground v.1.15,2013-02-10 10:39:00,
2013-02-10 05:40:00,8.9,6.3,30.23,NNE,33,1.0,5.0,89,0.00,,,0.00,Wunderground v.1.15,2013-02-10 10:40:00,
2013-02-10 05:44:00,8.8,6.2,30.23,NNE,24,2.0,5.0,89,0.00,,,0.00,Wunderground v.1.15,2013-02-10 10:44:00,
2013-02-10 05:45:00,8.7,6.1,30.23,NNE,23,2.0,5.0,89,0.00,,,0.00,Wunderground v.1.15,2013-02-10 10:45:00,
2013-02-10 05:46:00,8.7,6.1,30.23,NNE,23,2.0,5.0,89,0.00,,,0.00,Wunderground v.1.15,2013-02-10 10:46:00,
2013-02-10 05:51:00,8.4,5.8,30.23,NNE,17,3.0,5.0,89,0.00,,,0.00,Wunderground v.1.15,2013-02-10 10:51:00,
2013-02-10 05:52:00,8.3,5.7,30.23,NNE,24,3.0,6.0,89,0.00,,,0.00,Wunderground v.1.15,2013-02-10 10:52:00,
2013-02-10 05:54:00,8.3,5.7,30.23,NNE,16,3.0,6.0,89,0.00,,,0.00,Wunderground v.1.15,2013-02-10 10:54:00,
2013-02-10 05:56:00,8.2,5.6,30.23,NNE,19,3.0,6.0,89,0.00,,,0.00,Wunderground v.1.15,2013-02-10 10:56:00,
2013-02-10 05:57:00,8.2,5.6,30.23,NNE,28,3.0,6.0,89,0.00,,,0.00,Wunderground v.1.15,2013-02-10 10:57:00,
2013-02-10 06:00:00,8.1,5.5,30.24,NE,34,3.0,3.0,89,0.00,,,0.00,Wunderground v.1.15,2013-02-10 11:00:00,
2013-02-10 06:03:00,8.1,5.5,30.24,NNE,22,2.0,5.0,89,0.00,,,0.00,Wunderground v.1.15,2013-02-10 11:03:00,
2013-02-10 06:04:00,8.0,5.4,30.24,NNE,22,2.0,5.0,89,0.00,,,0.00,Wunderground v.1.15,2013-02-10 11:04:00,
2013-02-10 06:06:00,8.0,5.4,30.24,NNE,15,2.0,5.0,89,0.00,,,0.00,Wunderground v.1.15,2013-02-10 11:06:00,
2013-02-10 06:08:00,7.9,5.3,30.25,NNE,15,2.0,5.0,89,0.00,,,0.00,Wunderground v.1.15,2013-02-10 11:08:00,
2013-02-10 06:11:00,7.8,5.2,30.25,NNE,15,2.0,5.0,89,0.00,,,0.00,Wunderground v.1.15,2013-02-10 11:11:00,
2013-02-10 06:12:00,7.8,5.2,30.25,NNE,16,2.0,5.0,89,0.00,,,0.00,Wunderground v.1.15,2013-02-10 11:12:00,
2013-02-10 06:15:00,7.8,5.2,30.25,NNE,31,2.0,5.0,89,0.00,,,0.00,Wunderground v.1.15,2013-02-10 11:15:00,
2013-02-10 06:17:00,7.9,5.3,30.25,NNE,26,3.0,5.0,89,0.00,,,0.00,Wunderground v.1.15,2013-02-10 11:17:00,
2013-02-10 06:18:00,7.9,5.3,30.25,NNE,28,3.0,5.0,89,0.00,,,0.00,Wunderground v.1.15,2013-02-10 11:18:00,
2013-02-10 06:19:00,7.9,5.3,30.25,NNE,32,3.0,5.0,89,0.00,,,0.00,Wunderground v.1.15,2013-02-10 11:19:00,
2013-02-10 06:21:00,8.0,5.4,30.26,NNE,32,2.0,5.0,89,0.00,,,0.00,Wunderground v.1.15,2013-02-10 11:21:00,
2013-02-10 06:23:00,8.0,5.4,30.26,NNE,32,2.0,5.0,89,0.00,,,0.00,Wunderground v.1.15,2013-02-10 11:23:00,
2013-02-10 06:24:00,8.0,5.4,30.26,NNE,32,1.0,5.0,89,0.00,,,0.00,Wunderground v.1.15,2013-02-10 11:24:00,
2013-02-10 06:26:00,8.0,5.4,30.26,NNE,32,1.0,5.0,89,0.00,,,0.00,Wunderground v.1.15,2013-02-10 11:26:00,
2013-02-10 06:28:00,7.9,5.3,30.26,NNE,32,0.0,5.0,89,0.00,,,0.00,Wunderground v.1.15,2013-02-10 11:28:00,
2013-02-10 06:30:00,7.8,5.2,30.26,NNE,32,0.0,5.0,89,0.00,,,0.00,Wunderground v.1.15,2013-02-10 11:30:00,
2013-02-10 06:31:00,7.8,5.2,30.26,NNE,32,0.0,5.0,89,0.00,,,0.00,Wunderground v.1.15,2013-02-10 11:31:00,
2013-02-10 06:36:00,7.5,4.9,30.26,NNE,32,0.0,5.0,89,0.00,,,0.00,Wunderground v.1.15,2013-02-10 11:36:00,
2013-02-10 06:37:00,7.4,4.8,30.26,NNE,32,0.0,5.0,89,0.00,,,0.00,Wunderground v.1.15,2013-02-10 11:37:00,
2013-02-10 06:38:00,7.3,4.7,30.26,NNE,32,0.0,5.0,89,0.00,,,0.00,Wunderground v.1.15,2013-02-10 11:38:00,
2013-02-10 06:40:00,7.2,4.6,30.26,NNE,32,0.0,5.0,89,0.00,,,0.00,Wunderground v.1.15,2013-02-10 11:40:00,
2013-02-10 06:42:00,7.2,4.6,30.27,NNE,32,0.0,5.0,89,0.00,,,0.00,Wunderground v.1.15,2013-02-10 11:42:00,
2013-02-10 06:44:00,7.1,4.5,30.27,NNE,32,0.0,5.0,89,0.00,,,0.00,Wunderground v.1.15,2013-02-10 11:44:00,
2013-02-10 06:47:00,6.9,4.3,30.27,NNE,32,0.0,5.0,89,0.00,,,0.00,Wunderground v.1.15,2013-02-10 11:47:00,
2013-02-10 06:48:00,6.8,4.2,30.27,NNE,32,0.0,5.0,89,0.00,,,0.00,Wunderground v.1.15,2013-02-10 11:48:00,
2013-02-10 06:52:00,6.6,4.0,30.27,NNE,32,1.0,5.0,89,0.00,,,0.00,Wunderground v.1.15,2013-02-10 11:52:00,
2013-02-10 06:55:00,6.5,3.9,30.28,NNE,32,1.0,5.0,89,0.00,,,0.00,Wunderground v.1.15,2013-02-10 11:55:00,
2013-02-10 06:57:00,6.4,3.9,30.28,NNE,32,1.0,5.0,89,0.00,,,0.00,Wunderground v.1.15,2013-02-10 11:57:00,
2013-02-10 06:58:00,6.4,3.9,30.28,NNE,32,1.0,5.0,89,0.00,,,0.00,Wunderground v.1.15,2013-02-10 11:58:00,
2013-02-10 06:59:00,6.4,3.9,30.28,NNE,32,1.0,5.0,89,0.00,,,0.00,Wunderground v.1.15,2013-02-10 11:59:00,
2013-02-10 07:00:00,6.3,3.8,30.28,NNE,32,1.0,1.0,89,0.00,,,0.00,Wunderground v.1.15,2013-02-10 12:00:00,
2013-02-10 07:04:00,6.3,3.8,30.28,NNE,32,1.0,3.0,89,0.00,,,0.00,Wunderground v.1.15,2013-02-10 12:04:00,
2013-02-10 07:05:00,6.2,3.7,30.29,NNE,32,1.0,3.0,89,0.00,,,0.00,Wunderground v.1.15,2013-02-10 12:05:00,
2013-02-10 07:06:00,6.2,3.7,30.29,NNE,32,1.0,3.0,89,0.00,,,0.00,Wunderground v.1.15,2013-02-10 12:06:00,
2013-02-10 07:08:00,6.1,3.6,30.29,NNE,32,0.0,3.0,89,0.00,,,0.00,Wunderground v.1.15,2013-02-10 12:08:00,
2013-02-10 07:09:00,6.1,3.6,30.29,NNE,31,1.0,3.0,89,0.00,,,0.00,Wunderground v.1.15,2013-02-10 12:09:00,
2013-02-10 07:11:00,6.0,3.5,30.28,NNE,31,1.0,3.0,89,0.00,,,0.00,Wunderground v.1.15,2013-02-10 12:11:00,
2013-02-10 07:12:00,6.0,3.5,30.28,NNE,31,1.0,3.0,89,0.00,,,0.00,Wunderground v.1.15,2013-02-10 12:12:00,
2013-02-10 07:14:00,6.0,3.5,30.28,NNE,31,1.0,3.0,89,0.00,,,0.00,Wunderground v.1.15,2013-02-10 12:14:00,
2013-02-10 07:16:00,6.0,3.5,30.28,NNE,31,1.0,3.0,89,0.00,,,0.00,Wunderground v.1.15,2013-02-10 12:16:00,
2013-02-10 07:18:00,6.0,3.5,30.29,NNE,31,1.0,3.0,89,0.00,,,0.00,Wunderground v.1.15,2013-02-10 12:18:00,
2013-02-10 07:19:00,6.0,3.5,30.29,NNE,31,1.0,3.0,89,0.00,,,0.00,Wunderground v.1.15,2013-02-10 12:19:00,
2013-02-10 07:20:00,6.0,3.5,30.29,NNE,31,0.0,3.0,89,0.00,,,0.00,Wunderground v.1.15,2013-02-10 12:20:00,
2013-02-10 07:23:00,6.0,3.5,30.29,NNE,31,0.0,3.0,89,0.00,,,0.00,Wunderground v.1.15,2013-02-10 12:23:00,
2013-02-10 07:24:00,6.0,3.5,30.29,NNE,31,0.0,3.0,89,0.00,,,0.00,Wunderground v.1.15,2013-02-10 12:24:00,
2013-02-10 07:25:00,6.0,3.5,30.29,NNE,31,0.0,3.0,89,0.00,,,0.00,Wunderground v.1.15,2013-02-10 12:25:00,
2013-02-10 07:28:00,6.1,3.6,30.30,NNE,31,0.0,3.0,89,0.00,,,0.00,Wunderground v.1.15,2013-02-10 12:28:00,
2013-02-10 07:33:00,6.2,3.7,30.30,NNE,31,1.0,3.0,89,0.00,,,0.00,Wunderground v.1.15,2013-02-10 12:33:00,
2013-02-10 07:34:00,6.3,3.8,30.30,NNE,31,1.0,3.0,89,0.00,,,0.00,Wunderground v.1.15,2013-02-10 12:34:00,
2013-02-10 07:38:00,6.4,3.9,30.30,NNE,31,1.0,3.0,89,0.00,,,0.00,Wunderground v.1.15,2013-02-10 12:38:00,
2013-02-10 07:40:00,6.5,3.9,30.30,NNE,31,1.0,1.0,89,0.00,,,0.00,Wunderground v.1.15,2013-02-10 12:40:00,
2013-02-10 07:41:00,6.5,3.9,30.30,NNE,31,1.0,3.0,89,0.00,,,0.00,Wunderground v.1.15,2013-02-10 12:41:00,
2013-02-10 07:45:00,6.7,4.1,30.31,NNE,31,0.0,3.0,89,0.00,,,0.00,Wunderground v.1.15,2013-02-10 12:45:00,
2013-02-10 07:47:00,6.7,4.1,30.31,NNE,31,0.0,3.0,89,0.00,,,0.00,Wunderground v.1.15,2013-02-10 12:47:00,
2013-02-10 07:49:00,6.8,4.2,30.31,NNE,31,1.0,3.0,89,0.00,,,0.00,Wunderground v.1.15,2013-02-10 12:49:00,
2013-02-10 07:52:00,6.8,4.2,30.31,NNE,31,1.0,3.0,89,0.00,,,0.00,Wunderground v.1.15,2013-02-10 12:52:00,
2013-02-10 07:53:00,6.8,4.2,30.31,NNE,31,1.0,3.0,89,0.00,,,0.00,Wunderground v.1.15,2013-02-10 12:53:00,
2013-02-10 07:57:00,6.9,4.3,30.31,NNE,31,0.0,3.0,89,0.00,,,0.00,Wunderground v.1.15,2013-02-10 12:57:00,
2013-02-10 07:59:00,7.0,4.4,30.31,NNE,31,0.0,3.0,89,0.00,,,0.00,Wunderground v.1.15,2013-02-10 12:59:00,
2013-02-10 08:02:00,7.2,4.6,30.31,NNE,31,0.0,4.0,89,0.00,,,0.00,Wunderground v.1.15,2013-02-10 13:02:00,
2013-02-10 08:05:00,7.2,4.6,30.31,NNE,31,0.0,4.0,89,0.00,,,0.00,Wunderground v.1.15,2013-02-10 13:05:00,
2013-02-10 08:07:00,7.3,4.7,30.31,NNE,31,0.0,4.0,89,0.00,,,0.00,Wunderground v.1.15,2013-02-10 13:07:00,
2013-02-10 08:09:00,7.3,4.7,30.32,NNE,31,0.0,4.0,89,0.00,,,0.00,Wunderground v.1.15,2013-02-10 13:09:00,
2013-02-10 08:12:00,7.4,4.8,30.32,NNE,31,0.0,4.0,89,0.00,,,0.00,Wunderground v.1.15,2013-02-10 13:12:00,
2013-02-10 08:13:00,7.4,4.8,30.32,NNE,31,0.0,4.0,89,0.00,,,0.00,Wunderground v.1.15,2013-02-10 13:13:00,
2013-02-10 08:14:00,7.5,4.9,30.32,NNE,31,0.0,4.0,89,0.00,,,0.00,Wunderground v.1.15,2013-02-10 13:14:00,
2013-02-10 08:17:00,7.6,5.0,30.32,NNE,31,0.0,4.0,89,0.00,,,0.00,Wunderground v.1.15,2013-02-10 13:17:00,
2013-02-10 08:18:00,7.7,5.1,30.32,NNE,31,0.0,4.0,89,0.00,,,0.00,Wunderground v.1.15,2013-02-10 13:18:00,
2013-02-10 08:19:00,7.7,5.1,30.32,NNE,31,0.0,4.0,89,0.00,,,0.00,Wunderground v.1.15,2013-02-10 13:19:00,
2013-02-10 08:20:00,7.8,5.2,30.32,NNE,31,0.0,4.0,89,0.00,,,0.00,Wunderground v.1.15,2013-02-10 13:20:00,
2013-02-10 08:24:00,7.9,5.3,30.32,NE,34,0.0,4.0,89,0.00,,,0.00,Wunderground v.1.15,2013-02-10 13:24:00,
2013-02-10 08:25:00,8.0,5.4,30.32,NE,34,0.0,4.0,89,0.00,,,0.00,Wunderground v.1.15,2013-02-10 13:25:00,
2013-02-10 08:28:00,8.1,5.5,30.32,NE,34,0.0,4.0,89,0.00,,,0.00,Wunderground v.1.15,2013-02-10 13:28:00,
2013-02-10 08:30:00,8.2,5.6,30.32,NE,34,0.0,4.0,89,0.00,,,0.00,Wunderground v.1.15,2013-02-10 13:30:00,
2013-02-10 08:32:00,8.3,5.7,30.32,NE,34,0.0,4.0,89,0.00,,,0.00,Wunderground v.1.15,2013-02-10 13:32:00,
2013-02-10 08:33:00,8.4,5.8,30.32,NE,34,0.0,4.0,89,0.00,,,0.00,Wunderground v.1.15,2013-02-10 13:33:00,
2013-02-10 08:38:00,8.7,6.1,30.32,NE,35,0.0,4.0,89,0.00,,,0.00,Wunderground v.1.15,2013-02-10 13:38:00,
2013-02-10 08:40:00,8.9,6.3,30.33,NE,35,0.0,4.0,89,0.00,,,0.00,Wunderground v.1.15,2013-02-10 13:40:00,
2013-02-10 08:41:00,8.9,6.3,30.33,NE,35,0.0,4.0,89,0.00,,,0.00,Wunderground v.1.15,2013-02-10 13:41:00,
2013-02-10 08:43:00,8.9,6.3,30.33,NE,35,0.0,4.0,89,0.00,,,0.00,Wunderground v.1.15,2013-02-10 13:43:00,
2013-02-10 08:46:00,9.2,6.6,30.33,NE,36,0.0,4.0,89,0.00,,,0.00,Wunderground v.1.15,2013-02-10 13:46:00,
2013-02-10 08:49:00,9.5,6.9,30.33,NE,36,0.0,4.0,89,0.00,,,0.00,Wunderground v.1.15,2013-02-10 13:49:00,
2013-02-10 08:50:00,9.6,7.0,30.33,NE,36,0.0,4.0,89,0.00,,,0.00,Wunderground v.1.15,2013-02-10 13:50:00,
2013-02-10 08:51:00,9.6,7.0,30.33,NE,36,0.0,4.0,89,0.00,,,0.00,Wunderground v.1.15,2013-02-10 13:51:00,
2013-02-10 08:54:00,9.9,7.6,30.33,NE,37,0.0,4.0,90,0.00,,,0.00,Wunderground v.1.15,2013-02-10 13:54:00,
2013-02-10 08:55:00,10.0,7.7,30.33,NE,37,0.0,4.0,90,0.00,,,0.00,Wunderground v.1.15,2013-02-10 13:55:00,
2013-02-10 08:56:00,10.1,7.8,30.33,NE,37,0.0,4.0,90,0.00,,,0.00,Wunderground v.1.15,2013-02-10 13:56:00,
2013-02-10 08:57:00,10.1,7.8,30.33,NE,37,0.0,4.0,90,0.00,,,0.00,Wunderground v.1.15,2013-02-10 13:57:00,
2013-02-10 09:02:00,10.5,8.1,30.33,NE,37,0.0,4.0,90,0.00,,,0.00,Wunderground v.1.15,2013-02-10 14:02:00,
2013-02-10 09:03:00,10.7,8.3,30.33,NE,37,0.0,4.0,90,0.00,,,0.00,Wunderground v.1.15,2013-02-10 14:03:00,
2013-02-10 09:05:00,10.8,8.4,30.33,NE,53,0.0,4.0,90,0.00,,,0.00,Wunderground v.1.15,2013-02-10 14:05:00,
2013-02-10 09:06:00,10.9,8.5,30.33,NE,53,0.0,4.0,90,0.00,,,0.00,Wunderground v.1.15,2013-02-10 14:06:00,
2013-02-10 09:07:00,11.0,8.6,30.33,NE,53,0.0,4.0,90,0.00,,,0.00,Wunderground v.1.15,2013-02-10 14:07:00,
2013-02-10 09:11:00,11.4,9.0,30.33,NE,53,0.0,4.0,90,0.00,,,0.00,Wunderground v.1.15,2013-02-10 14:11:00,
2013-02-10 09:12:00,11.5,9.1,30.33,NE,53,0.0,4.0,90,0.00,,,0.00,Wunderground v.1.15,2013-02-10 14:12:00,
2013-02-10 09:16:00,11.9,9.5,30.33,NE,53,0.0,4.0,90,0.00,,,0.00,Wunderground v.1.15,2013-02-10 14:16:00,
2013-02-10 09:17:00,12.0,9.6,30.33,NE,52,0.0,4.0,90,0.00,,,0.00,Wunderground v.1.15,2013-02-10 14:17:00,
2013-02-10 09:18:00,12.1,9.7,30.33,NE,52,0.0,4.0,90,0.00,,,0.00,Wunderground v.1.15,2013-02-10 14:18:00,
2013-02-10 09:19:00,12.2,9.8,30.33,NE,52,0.0,4.0,90,0.00,,,0.00,Wunderground v.1.15,2013-02-10 14:19:00,
2013-02-10 09:23:00,12.6,10.2,30.33,NE,52,0.0,4.0,90,0.00,,,0.00,Wunderground v.1.15,2013-02-10 14:23:00,
2013-02-10 09:24:00,12.7,10.3,30.33,NE,52,0.0,4.0,90,0.00,,,0.00,Wunderground v.1.15,2013-02-10 14:24:00,
2013-02-10 09:26:00,13.0,10.6,30.33,NE,52,0.0,4.0,90,0.00,,,0.00,Wunderground v.1.15,2013-02-10 14:26:00,
2013-02-10 09:27:00,13.1,11.0,30.33,NE,52,0.0,4.0,91,0.00,,,0.00,Wunderground v.1.15,2013-02-10 14:27:00,
2013-02-10 09:31:00,13.5,11.4,30.33,ESE,113,0.0,4.0,91,0.00,,,0.00,Wunderground v.1.15,2013-02-10 14:31:00,
2013-02-10 09:32:00,13.6,11.5,30.33,ESE,113,0.0,4.0,91,0.00,,,0.00,Wunderground v.1.15,2013-02-10 14:32:00,
2013-02-10 09:34:00,13.8,11.4,30.33,ESE,103,0.0,4.0,90,0.00,,,0.00,Wunderground v.1.15,2013-02-10 14:34:00,
2013-02-10 09:36:00,14.0,11.6,30.33,East,96,0.0,4.0,90,0.00,,,0.00,Wunderground v.1.15,2013-02-10 14:36:00,
2013-02-10 09:37:00,14.1,11.7,30.33,East,96,0.0,4.0,90,0.00,,,0.00,Wunderground v.1.15,2013-02-10 14:37:00,
2013-02-10 09:38:00,14.2,12.1,30.33,East,96,0.0,4.0,91,0.00,,,0.00,Wunderground v.1.15,2013-02-10 14:38:00,
2013-02-10 09:40:00,14.4,12.3,30.33,NNE,30,0.0,4.0,91,0.00,,,0.00,Wunderground v.1.15,2013-02-10 14:40:00,
2013-02-10 09:43:00,14.6,12.2,30.33,NE,37,0.0,4.0,90,0.00,,,0.00,Wunderground v.1.15,2013-02-10 14:43:00,
2013-02-10 09:45:00,14.7,12.3,30.33,NNE,33,1.0,4.0,90,0.00,,,0.00,Wunderground v.1.15,2013-02-10 14:45:00,
2013-02-10 09:46:00,14.8,12.4,30.33,NNE,23,1.0,4.0,90,0.00,,,0.00,Wunderground v.1.15,2013-02-10 14:46:00,
2013-02-10 09:48:00,15.0,12.6,30.33,NNE,27,1.0,5.0,90,0.00,,,0.00,Wunderground v.1.15,2013-02-10 14:48:00,
2013-02-10 09:50:00,15.0,12.6,30.33,NE,55,2.0,4.0,90,0.00,,,0.00,Wunderground v.1.15,2013-02-10 14:50:00,
2013-02-10 09:51:00,15.1,12.7,30.33,NE,38,2.0,4.0,90,0.00,,,0.00,Wunderground v.1.15,2013-02-10 14:51:00,
2013-02-10 09:52:00,15.2,12.8,30.33,East,80,2.0,4.0,90,0.00,,,0.00,Wunderground v.1.15,2013-02-10 14:52:00,
2013-02-10 09:56:00,15.3,12.9,30.33,NNE,30,3.0,7.0,90,0.00,,,0.00,Wunderground v.1.15,2013-02-10 14:56:00,
2013-02-10 09:57:00,15.3,12.9,30.33,NE,53,2.0,7.0,90,0.00,,,0.00,Wunderground v.1.15,2013-02-10 14:57:00,
2013-02-10 09:58:00,15.4,13.0,30.33,NE,40,2.0,7.0,90,0.00,,,0.00,Wunderground v.1.15,2013-02-10 14:58:00,
2013-02-10 10:01:00,15.5,13.1,30.33,NE,41,2.0,8.0,90,0.00,,,0.00,Wunderground v.1.15,2013-02-10 15:01:00,
2013-02-10 10:02:00,15.6,13.2,30.33,NNE,28,2.0,8.0,90,0.00,,,0.00,Wunderground v.1.15,2013-02-10 15:02:00,
2013-02-10 10:05:00,15.7,13.3,30.33,NE,42,2.0,8.0,90,0.00,,,0.00,Wunderground v.1.15,2013-02-10 15:05:00,
2013-02-10 10:08:00,15.8,13.4,30.33,NE,49,3.0,8.0,90,0.00,,,0.00,Wunderground v.1.15,2013-02-10 15:08:00,
2013-02-10 10:10:00,15.9,13.5,30.33,NNE,30,3.0,8.0,90,0.00,,,0.00,Wunderground v.1.15,2013-02-10 15:10:00,
2013-02-10 10:11:00,15.9,13.5,30.33,NNE,12,3.0,8.0,90,0.00,,,0.00,Wunderground v.1.15,2013-02-10 15:11:00,
2013-02-10 10:12:00,16.0,13.6,30.33,NE,39,3.0,8.0,90,0.00,,,0.00,Wunderground v.1.15,2013-02-10 15:12:00,
2013-02-10 10:14:00,16.1,13.7,30.33,NE,38,3.0,8.0,90,0.00,,,0.00,Wunderground v.1.15,2013-02-10 15:14:00,
2013-02-10 10:17:00,16.2,13.8,30.33,ESE,120,3.0,8.0,90,0.00,,,0.00,Wunderground v.1.15,2013-02-10 15:17:00,
2013-02-10 10:18:00,16.3,13.9,30.33,ENE,61,2.0,8.0,90,0.00,,,0.00,Wunderground v.1.15,2013-02-10 15:18:00,
2013-02-10 10:19:00,16.4,14.0,30.33,NNE,29,2.0,8.0,90,0.00,,,0.00,Wunderground v.1.15,2013-02-10 15:19:00,
2013-02-10 10:22:00,16.7,14.3,30.33,NNE,33,2.0,8.0,90,0.00,,,0.00,Wunderground v.1.15,2013-02-10 15:22:00,
2013-02-10 10:23:00,16.8,14.4,30.33,NNE,19,2.0,8.0,90,0.00,,,0.00,Wunderground v.1.15,2013-02-10 15:23:00,
2013-02-10 10:24:00,16.8,14.4,30.33,NNE,31,2.0,8.0,90,0.00,,,0.00,Wunderground v.1.15,2013-02-10 15:24:00,
2013-02-10 10:26:00,17.0,14.6,30.33,North,10,2.0,8.0,90,0.00,,,0.00,Wunderground v.1.15,2013-02-10 15:26:00,
2013-02-10 10:30:00,17.5,15.1,30.33,NNE,30,2.0,2.0,90,0.00,,,0.00,Wunderground v.1.15,2013-02-10 15:30:00,
2013-02-10 10:31:00,17.6,15.4,30.33,NNE,32,2.0,8.0,91,0.00,,,0.00,Wunderground v.1.15,2013-02-10 15:31:00,
2013-02-10 10:32:00,17.7,15.5,30.33,ENE,60,1.0,8.0,91,0.00,,,0.00,Wunderground v.1.15,2013-02-10 15:32:00,
2013-02-10 10:36:00,18.2,16.0,30.33,ESE,107,1.0,8.0,91,0.00,,,0.00,Wunderground v.1.15,2013-02-10 15:36:00,
2013-02-10 10:37:00,18.4,16.2,30.33,ESE,107,1.0,8.0,91,0.00,,,0.00,Wunderground v.1.15,2013-02-10 15:37:00,
2013-02-10 10:38:00,18.5,16.3,30.33,SE,134,1.0,8.0,91,0.00,,,0.00,Wunderground v.1.15,2013-02-10 15:38:00,
2013-02-10 10:39:00,18.6,16.4,30.33,ENE,59,1.0,8.0,91,0.00,,,0.00,Wunderground v.1.15,2013-02-10 15:39:00,
2013-02-10 10:42:00,19.0,16.8,30.33,ENE,63,1.0,8.0,91,0.00,,,0.00,Wunderground v.1.15,2013-02-10 15:42:00,
2013-02-10 10:43:00,19.1,16.9,30.33,NNE,31,1.0,8.0,91,0.00,,,0.00,Wunderground v.1.15,2013-02-10 15:43:00,
2013-02-10 10:48:00,19.6,17.4,30.33,East,80,1.0,8.0,91,0.00,,,0.00,Wunderground v.1.15,2013-02-10 15:48:00,
2013-02-10 10:51:00,20.0,17.8,30.33,ESE,105,1.0,8.0,91,0.00,,,0.00,Wunderground v.1.15,2013-02-10 15:51:00,
2013-02-10 10:53:00,20.3,18.3,30.34,SSW,196,0.0,8.0,92,0.00,,,0.00,Wunderground v.1.15,2013-02-10 15:53:00,
2013-02-10 10:54:00,20.4,18.4,30.34,WNW,296,0.0,8.0,92,0.00,,,0.00,Wunderground v.1.15,2013-02-10 15:54:00,
2013-02-10 10:56:00,20.6,18.6,30.33,North,360,0.0,8.0,92,0.00,,,0.00,Wunderground v.1.15,2013-02-10 15:56:00,
2013-02-10 10:58:00,20.8,18.8,30.33,NE,47,0.0,8.0,92,0.00,,,0.00,Wunderground v.1.15,2013-02-10 15:58:00,
2013-02-10 10:59:00,20.9,18.9,30.34,NE,47,0.0,8.0,92,0.00,,,0.00,Wunderground v.1.15,2013-02-10 15:59:00,
2013-02-10 11:03:00,21.3,19.3,30.34,NE,37,1.0,6.0,92,0.00,,,0.00,Wunderground v.1.15,2013-02-10 16:03:00,
2013-02-10 11:04:00,21.3,19.3,30.33,NE,35,1.0,6.0,92,0.00,,,0.00,Wunderground v.1.15,2013-02-10 16:04:00,
2013-02-10 11:05:00,21.4,19.4,30.33,NNE,22,1.0,6.0,92,0.00,,,0.00,Wunderground v.1.15,2013-02-10 16:05:00,
2013-02-10 11:07:00,21.5,19.3,30.33,NNE,22,1.0,6.0,91,0.00,,,0.00,Wunderground v.1.15,2013-02-10 16:07:00,
2013-02-10 11:09:00,21.6,19.4,30.33,NNE,26,1.0,6.0,91,0.00,,,0.00,Wunderground v.1.15,2013-02-10 16:09:00,
2013-02-10 11:11:00,21.8,19.6,30.33,NNE,22,1.0,6.0,91,0.00,,,0.00,Wunderground v.1.15,2013-02-10 16:11:00,
2013-02-10 11:13:00,21.9,19.7,30.33,North,360,1.0,6.0,91,0.00,,,0.00,Wunderground v.1.15,2013-02-10 16:13:00,
2013-02-10 11:14:00,22.0,20.0,30.33,NNE,13,1.0,6.0,92,0.00,,,0.00,Wunderground v.1.15,2013-02-10 16:14:00,
2013-02-10 11:18:00,22.4,20.4,30.33,ENE,71,0.0,6.0,92,0.00,,,0.00,Wunderground v.1.15,2013-02-10 16:18:00,
2013-02-10 11:22:00,22.7,20.7,30.33,NW,306,0.0,6.0,92,0.00,,,0.00,Wunderground v.1.15,2013-02-10 16:22:00,
2013-02-10 11:23:00,22.8,20.8,30.33,NW,318,0.0,6.0,92,0.00,,,0.00,Wunderground v.1.15,2013-02-10 16:23:00,
2013-02-10 11:24:00,22.8,20.8,30.33,NE,48,0.0,6.0,92,0.00,,,0.00,Wunderground v.1.15,2013-02-10 16:24:00,
2013-02-10 11:26:00,22.9,20.9,30.32,NW,323,0.0,6.0,92,0.00,,,0.00,Wunderground v.1.15,2013-02-10 16:26:00,
2013-02-10 11:27:00,23.0,21.0,30.32,NW,326,1.0,6.0,92,0.00,,,0.00,Wunderground v.1.15,2013-02-10 16:27:00,
2013-02-10 11:28:00,23.0,21.0,30.32,WNW,296,1.0,6.0,92,0.00,,,0.00,Wunderground v.1.15,2013-02-10 16:28:00,
2013-02-10 11:32:00,23.2,21.2,30.32,WNW,297,1.0,6.0,92,0.00,,,0.00,Wunderground v.1.15,2013-02-10 16:32:00,
2013-02-10 11:33:00,23.3,21.3,30.32,SE,128,0.0,6.0,92,0.00,,,0.00,Wunderground v.1.15,2013-02-10 16:33:00,
2013-02-10 11:35:00,23.3,21.3,30.32,West,259,1.0,6.0,92,0.00,,,0.00,Wunderground v.1.15,2013-02-10 16:35:00,
2013-02-10 11:40:00,23.6,21.6,30.31,NNW,327,1.0,1.0,92,0.00,,,0.00,Wunderground v.1.15,2013-02-10 16:40:00,
2013-02-10 11:41:00,23.7,21.7,30.31,NW,309,1.0,6.0,92,0.00,,,0.00,Wunderground v.1.15,2013-02-10 16:41:00,
2013-02-10 11:42:00,23.8,21.8,30.31,NW,311,1.0,6.0,92,0.00,,,0.00,Wunderground v.1.15,2013-02-10 16:42:00,
2013-02-10 11:48:00,24.1,21.9,30.31,NW,306,0.0,6.0,91,0.00,,,0.00,Wunderground v.1.15,2013-02-10 16:48:00,
2013-02-10 11:50:00,24.3,22.3,30.30,West,281,0.0,6.0,92,0.00,,,0.00,Wunderground v.1.15,2013-02-10 16:50:00,
2013-02-10 11:53:00,24.5,22.5,30.30,North,360,0.0,6.0,92,0.00,,,0.00,Wunderground v.1.15,2013-02-10 16:53:00,
2013-02-10 11:55:00,24.5,22.5,30.30,NE,35,0.0,6.0,92,0.00,,,0.00,Wunderground v.1.15,2013-02-10 16:55:00,
2013-02-10 12:00:00,24.9,22.9,30.30,ENE,65,0.0,4.0,92,0.00,,,0.00,Wunderground v.1.15,2013-02-10 17:00:00,
2013-02-10 12:01:00,25.0,23.0,30.30,ENE,57,0.0,4.0,92,0.00,,,0.00,Wunderground v.1.15,2013-02-10 17:01:00,
2013-02-10 12:02:00,25.1,23.1,30.30,NE,54,0.0,4.0,92,0.00,,,0.00,Wunderground v.1.15,2013-02-10 17:02:00,
2013-02-10 12:07:00,25.4,23.4,30.30,NE,44,1.0,4.0,92,0.00,,,0.00,Wunderground v.1.15,2013-02-10 17:07:00,
2013-02-10 12:08:00,25.5,23.5,30.30,NNE,33,1.0,4.0,92,0.00,,,0.00,Wunderground v.1.15,2013-02-10 17:08:00,
2013-02-10 12:09:00,25.6,23.6,30.30,NNE,32,1.0,4.0,92,0.00,,,0.00,Wunderground v.1.15,2013-02-10 17:09:00,
2013-02-10 12:14:00,25.7,23.4,30.29,NNE,31,1.0,4.0,91,0.00,,,0.00,Wunderground v.1.15,2013-02-10 17:14:00,
2013-02-10 12:17:00,25.8,23.5,30.29,NNE,27,2.0,4.0,91,0.00,,,0.00,Wunderground v.1.15,2013-02-10 17:17:00,
2013-02-10 12:19:00,25.8,23.5,30.29,NNE,27,2.0,4.0,91,0.00,,,0.00,Wunderground v.1.15,2013-02-10 17:19:00,
2013-02-10 12:20:00,25.9,23.6,30.29,NNE,27,2.0,2.0,91,0.00,,,0.00,Wunderground v.1.15,2013-02-10 17:20:00,
2013-02-10 12:21:00,25.9,23.6,30.29,NE,53,1.0,4.0,91,0.00,,,0.00,Wunderground v.1.15,2013-02-10 17:21:00,
2013-02-10 12:23:00,26.0,24.0,30.29,NE,49,1.0,4.0,92,0.00,,,0.00,Wunderground v.1.15,2013-02-10 17:23:00,
2013-02-10 12:24:00,26.1,24.1,30.28,NE,51,1.0,4.0,92,0.00,,,0.00,Wunderground v.1.15,2013-02-10 17:24:00,
2013-02-10 12:25:00,26.3,24.3,30.28,NE,49,1.0,4.0,92,0.00,,,0.00,Wunderground v.1.15,2013-02-10 17:25:00,
2013-02-10 12:27:00,26.5,24.5,30.28,NE,34,1.0,4.0,92,0.00,,,0.00,Wunderground v.1.15,2013-02-10 17:27:00,
2013-02-10 12:28:00,26.5,24.5,30.28,NE,47,1.0,4.0,92,0.00,,,0.00,Wunderground v.1.15,2013-02-10 17:28:00,
2013-02-10 12:30:00,26.6,24.6,30.28,North,9,1.0,1.0,92,0.00,,,0.00,Wunderground v.1.15,2013-02-10 17:30:00,
2013-02-10 12:32:00,26.8,24.8,30.28,NNE,30,1.0,4.0,92,0.00,,,0.00,Wunderground v.1.15,2013-02-10 17:32:00,
2013-02-10 12:33:00,26.9,24.9,30.28,NNE,29,1.0,4.0,92,0.00,,,0.00,Wunderground v.1.15,2013-02-10 17:33:00,
2013-02-10 12:35:00,27.1,25.1,30.28,NNE,28,1.0,4.0,92,0.00,,,0.00,Wunderground v.1.15,2013-02-10 17:35:00,
2013-02-10 12:36:00,27.2,25.2,30.28,West,273,1.0,4.0,92,0.00,,,0.00,Wunderground v.1.15,2013-02-10 17:36:00,
2013-02-10 12:39:00,27.4,25.4,30.27,West,275,1.0,4.0,92,0.00,,,0.00,Wunderground v.1.15,2013-02-10 17:39:00,
2013-02-10 12:40:00,27.5,25.5,30.27,NW,313,1.0,4.0,92,0.00,,,0.00,Wunderground v.1.15,2013-02-10 17:40:00,
2013-02-10 12:43:00,27.6,25.6,30.27,West,279,1.0,4.0,92,0.00,,,0.00,Wunderground v.1.15,2013-02-10 17:43:00,
2013-02-10 12:45:00,27.7,25.4,30.27,NE,38,1.0,4.0,91,0.00,,,0.00,Wunderground v.1.15,2013-02-10 17:45:00,
2013-02-10 12:47:00,27.8,25.8,30.27,SSE,148,1.0,4.0,92,0.00,,,0.00,Wunderground v.1.15,2013-02-10 17:47:00,
2013-02-10 12:48:00,27.8,25.8,30.27,ESE,116,1.0,4.0,92,0.00,,,0.00,Wunderground v.1.15,2013-02-10 17:48:00,
2013-02-10 12:51:00,27.9,25.9,30.26,NW,312,1.0,4.0,92,0.00,,,0.00,Wunderground v.1.15,2013-02-10 17:51:00,
2013-02-10 12:57:00,28.1,26.1,30.26,NNW,342,1.0,4.0,92,0.00,,,0.00,Wunderground v.1.15,2013-02-10 17:57:00,
2013-02-10 13:02:00,28.1,26.1,30.26,NNE,24,1.0,4.0,92,0.00,,,0.00,Wunderground v.1.15,2013-02-10 18:02:00,
2013-02-10 13:03:00,28.1,25.8,30.26,North,9,1.0,4.0,91,0.00,,,0.00,Wunderground v.1.15,2013-02-10 18:03:00,
2013-02-10 13:06:00,28.1,26.1,30.26,NNE,32,1.0,4.0,92,0.00,,,0.00,Wunderground v.1.15,2013-02-10 18:06:00,
2013-02-10 13:08:00,28.2,26.2,30.26,NE,40,1.0,4.0,92,0.00,,,0.00,Wunderground v.1.15,2013-02-10 18:08:00,
2013-02-10 13:10:00,28.2,25.9,30.26,NE,51,1.0,1.0,91,0.00,,,0.00,Wunderground v.1.15,2013-02-10 18:10:00,
2013-02-10 13:13:00,28.2,25.9,30.25,ENE,57,1.0,4.0,91,0.00,,,0.00,Wunderground v.1.15,2013-02-10 18:13:00,
2013-02-10 13:14:00,28.3,26.0,30.25,NE,44,1.0,4.0,91,0.00,,,0.00,Wunderground v.1.15,2013-02-10 18:14:00,
2013-02-10 13:15:00,28.3,26.0,30.26,NE,53,1.0,4.0,91,0.00,,,0.00,Wunderground v.1.15,2013-02-10 18:15:00,
2013-02-10 13:19:00,28.4,26.1,30.25,SW,215,1.0,4.0,91,0.00,,,0.00,Wunderground v.1.15,2013-02-10 18:19:00,
2013-02-10 13:21:00,28.4,26.1,30.25,NNW,336,1.0,4.0,91,0.00,,,0.00,Wunderground v.1.15,2013-02-10 18:21:00,
2013-02-10 13:23:00,28.5,26.2,30.25,East,92,1.0,4.0,91,0.00,,,0.00,Wunderground v.1.15,2013-02-10 18:23:00,
2013-02-10 13:25:00,28.5,26.2,30.25,NNW,327,1.0,4.0,91,0.00,,,0.00,Wunderground v.1.15,2013-02-10 18:25:00,
2013-02-10 13:26:00,28.6,26.3,30.25,NW,325,1.0,4.0,91,0.00,,,0.00,Wunderground v.1.15,2013-02-10 18:26:00,
2013-02-10 13:28:00,28.8,26.5,30.25,SE,146,1.0,4.0,91,0.00,,,0.00,Wunderground v.1.15,2013-02-10 18:28:00,
2013-02-10 13:31:00,28.9,26.6,30.25,NE,55,1.0,3.0,91,0.00,,,0.00,Wunderground v.1.15,2013-02-10 18:31:00,
2013-02-10 13:32:00,28.9,26.6,30.25,ENE,61,1.0,4.0,91,0.00,,,0.00,Wunderground v.1.15,2013-02-10 18:32:00,
2013-02-10 13:33:00,28.9,26.6,30.25,ENE,57,1.0,4.0,91,0.00,,,0.00,Wunderground v.1.15,2013-02-10 18:33:00,
2013-02-10 13:35:00,29.0,26.7,30.24,NE,41,1.0,4.0,91,0.00,,,0.00,Wunderground v.1.15,2013-02-10 18:35:00,
2013-02-10 13:37:00,29.0,26.7,30.24,NNE,13,1.0,4.0,91,0.00,,,0.00,Wunderground v.1.15,2013-02-10 18:37:00,
2013-02-10 13:42:00,29.2,26.9,30.24,NE,36,1.0,4.0,91,0.00,,,0.00,Wunderground v.1.15,2013-02-10 18:42:00,
2013-02-10 13:43:00,29.3,27.0,30.24,ENE,71,1.0,4.0,91,0.00,,,0.00,Wunderground v.1.15,2013-02-10 18:43:00,
2013-02-10 13:45:00,29.4,27.1,30.24,NW,315,1.0,4.0,91,0.00,,,0.00,Wunderground v.1.15,2013-02-10 18:45:00,
2013-02-10 13:50:00,29.6,27.3,30.24,NNW,336,1.0,1.0,91,0.00,,,0.00,Wunderground v.1.15,2013-02-10 18:50:00,
2013-02-10 13:51:00,29.6,27.3,30.24,NNE,24,1.0,4.0,91,0.00,,,0.00,Wunderground v.1.15,2013-02-10 18:51:00,
2013-02-10 13:52:00,29.6,27.3,30.24,NE,35,0.0,4.0,91,0.00,,,0.00,Wunderground v.1.15,2013-02-10 18:52:00,
2013-02-10 13:54:00,29.7,27.4,30.24,ESE,114,1.0,4.0,91,0.00,,,0.00,Wunderground v.1.15,2013-02-10 18:54:00,
2013-02-10 13:56:00,29.7,27.4,30.24,NNE,19,0.0,4.0,91,0.00,,,0.00,Wunderground v.1.15,2013-02-10 18:56:00,
2013-02-10 13:57:00,29.8,27.5,30.24,NE,46,0.0,4.0,91,0.00,,,0.00,Wunderground v.1.15,2013-02-10 18:57:00,
2013-02-10 14:00:00,29.8,27.5,30.24,NNE,28,1.0,1.0,91,0.00,,,0.00,Wunderground v.1.15,2013-02-10 19:00:00,
2013-02-10 14:02:00,29.9,27.6,30.24,NNE,25,1.0,7.0,91,0.00,,,0.00,Wunderground v.1.15,2013-02-10 19:02:00,
2013-02-10 14:03:00,29.9,27.6,30.24,North,5,1.0,7.0,91,0.00,,,0.00,Wunderground v.1.15,2013-02-10 19:03:00,
2013-02-10 14:09:00,30.2,27.9,30.24,NNE,22,0.0,7.0,91,0.00,,,0.00,Wunderground v.1.15,2013-02-10 19:09:00,
2013-02-10 14:10:00,30.2,27.9,30.24,NNE,22,0.0,7.0,91,0.00,,,0.00,Wunderground v.1.15,2013-02-10 19:10:00,
2013-02-10 14:11:00,30.3,28.0,30.24,NE,51,0.0,7.0,91,0.00,,,0.00,Wunderground v.1.15,2013-02-10 19:11:00,
2013-02-10 14:16:00,30.4,28.1,30.24,NNE,18,0.0,7.0,91,0.00,,,0.00,Wunderground v.1.15,2013-02-10 19:16:00,
2013-02-10 14:18:00,30.5,28.2,30.24,NE,39,0.0,7.0,91,0.00,,,0.00,Wunderground v.1.15,2013-02-10 19:18:00,
2013-02-10 14:19:00,30.5,28.2,30.24,NE,49,0.0,7.0,91,0.00,,,0.00,Wunderground v.1.15,2013-02-10 19:19:00,
2013-02-10 14:24:00,30.2,27.9,30.24,NNE,29,1.0,7.0,91,0.00,,,0.00,Wunderground v.1.15,2013-02-10 19:24:00,
2013-02-10 14:25:00,30.2,27.9,30.24,NE,46,1.0,7.0,91,0.00,,,0.00,Wunderground v.1.15,2013-02-10 19:25:00,
2013-02-10 14:26:00,30.3,28.0,30.24,NE,46,1.0,7.0,91,0.00,,,0.00,Wunderground v.1.15,2013-02-10 19:26:00,
2013-02-10 14:30:00,30.5,28.2,30.23,NE,45,1.0,1.0,91,0.00,,,0.00,Wunderground v.1.15,2013-02-10 19:30:00,
2013-02-10 14:31:00,30.5,28.2,30.24,NE,45,1.0,7.0,91,0.00,,,0.00,Wunderground v.1.15,2013-02-10 19:31:00,
2013-02-10 14:33:00,30.6,28.3,30.24,NE,45,0.0,7.0,91,0.00,,,0.00,Wunderground v.1.15,2013-02-10 19:33:00,
2013-02-10 14:36:00,30.6,28.3,30.24,NE,51,1.0,7.0,91,0.00,,,0.00,Wunderground v.1.15,2013-02-10 19:36:00,
2013-02-10 14:37:00,30.6,28.3,30.24,NE,50,1.0,7.0,91,0.00,,,0.00,Wunderground v.1.15,2013-02-10 19:37:00,
2013-02-10 14:40:00,30.6,28.3,30.24,North,11,1.0,7.0,91,0.00,,,0.00,Wunderground v.1.15,2013-02-10 19:40:00,
2013-02-10 14:42:00,30.6,28.3,30.24,NNE,19,1.0,7.0,91,0.00,,,0.00,Wunderground v.1.15,2013-02-10 19:42:00,
2013-02-10 14:45:00,30.7,28.4,30.24,NE,51,1.0,7.0,91,0.00,,,0.00,Wunderground v.1.15,2013-02-10 19:45:00,
2013-02-10 14:46:00,30.8,28.5,30.24,NE,51,1.0,7.0,91,0.00,,,0.00,Wunderground v.1.15,2013-02-10 19:46:00,
2013-02-10 14:47:00,30.7,28.4,30.24,NE,36,1.0,7.0,91,0.00,,,0.00,Wunderground v.1.15,2013-02-10 19:47:00,
2013-02-10 14:48:00,30.7,28.4,30.24,NNE,18,1.0,7.0,91,0.00,,,0.00,Wunderground v.1.15,2013-02-10 19:48:00,
2013-02-10 14:50:00,30.6,28.3,30.24,NE,45,1.0,7.0,91,0.00,,,0.00,Wunderground v.1.15,2013-02-10 19:50:00,
2013-02-10 14:53:00,30.6,28.3,30.24,NE,46,1.0,7.0,91,0.00,,,0.00,Wunderground v.1.15,2013-02-10 19:53:00,
2013-02-10 14:54:00,30.6,28.3,30.24,ENE,76,1.0,7.0,91,0.00,,,0.00,Wunderground v.1.15,2013-02-10 19:54:00,
2013-02-10 14:57:00,30.7,28.4,30.24,ENE,78,1.0,7.0,91,0.00,,,0.00,Wunderground v.1.15,2013-02-10 19:57:00,
2013-02-10 14:58:00,30.7,28.4,30.24,ESE,113,0.0,7.0,91,0.00,,,0.00,Wunderground v.1.15,2013-02-10 19:58:00,
2013-02-10 14:59:00,30.7,28.4,30.24,ESE,113,0.0,7.0,91,0.00,,,0.00,Wunderground v.1.15,2013-02-10 19:59:00,
2013-02-10 15:04:00,30.9,28.6,30.24,SE,134,0.0,5.0,91,0.00,,,0.00,Wunderground v.1.15,2013-02-10 20:04:00,
2013-02-10 15:06:00,31.0,28.7,30.24,SE,134,0.0,5.0,91,0.00,,,0.00,Wunderground v.1.15,2013-02-10 20:06:00,
2013-02-10 15:09:00,31.1,28.8,30.24,SE,134,0.0,5.0,91,0.00,,,0.00,Wunderground v.1.15,2013-02-10 20:09:00,
2013-02-10 15:10:00,31.2,28.9,30.24,SE,136,0.0,5.0,91,0.00,,,0.00,Wunderground v.1.15,2013-02-10 20:10:00,
2013-02-10 15:12:00,31.2,28.9,30.24,East,84,0.0,5.0,91,0.00,,,0.00,Wunderground v.1.15,2013-02-10 20:12:00,
2013-02-10 15:15:00,31.3,29.2,30.24,East,87,0.0,5.0,92,0.00,,,0.00,Wunderground v.1.15,2013-02-10 20:15:00,
2013-02-10 15:17:00,31.3,29.2,30.24,East,86,0.0,5.0,92,0.00,,,0.00,Wunderground v.1.15,2013-02-10 20:17:00,
2013-02-10 15:20:00,31.3,29.0,30.24,East,89,0.0,5.0,91,0.00,,,0.00,Wunderground v.1.15,2013-02-10 20:20:00,
2013-02-10 15:22:00,31.2,28.9,30.24,East,89,0.0,5.0,91,0.00,,,0.00,Wunderground v.1.15,2013-02-10 20:22:00,
2013-02-10 15:24:00,31.2,28.9,30.24,East,89,0.0,5.0,91,0.00,,,0.00,Wunderground v.1.15,2013-02-10 20:24:00,
2013-02-10 15:26:00,31.3,29.2,30.24,East,89,0.0,5.0,92,0.00,,,0.00,Wunderground v.1.15,2013-02-10 20:26:00,
2013-02-10 15:29:00,31.3,29.2,30.25,East,89,0.0,5.0,92,0.00,,,0.00,Wunderground v.1.15,2013-02-10 20:29:00,
2013-02-10 15:31:00,31.3,29.0,30.25,East,89,0.0,5.0,91,0.00,,,0.00,Wunderground v.1.15,2013-02-10 20:31:00,
2013-02-10 15:34:00,31.4,29.3,30.26,East,89,0.0,5.0,92,0.00,,,0.00,Wunderground v.1.15,2013-02-10 20:34:00,
2013-02-10 15:36:00,31.3,29.2,30.25,East,89,0.0,5.0,92,0.00,,,0.00,Wunderground v.1.15,2013-02-10 20:36:00,
2013-02-10 15:38:00,31.3,29.2,30.25,East,89,0.0,5.0,92,0.00,,,0.00,Wunderground v.1.15,2013-02-10 20:38:00,
2013-02-10 15:39:00,31.2,29.1,30.25,East,89,0.0,5.0,92,0.00,,,0.00,Wunderground v.1.15,2013-02-10 20:39:00,
2013-02-10 15:42:00,31.2,29.1,30.24,East,89,0.0,5.0,92,0.00,,,0.00,Wunderground v.1.15,2013-02-10 20:42:00,
2013-02-10 15:44:00,31.3,29.2,30.24,East,89,0.0,5.0,92,0.00,,,0.00,Wunderground v.1.15,2013-02-10 20:44:00,
2013-02-10 15:45:00,31.3,29.2,30.24,East,89,0.0,5.0,92,0.00,,,0.00,Wunderground v.1.15,2013-02-10 20:45:00,
2013-02-10 15:49:00,31.3,29.2,30.24,East,89,0.0,5.0,92,0.00,,,0.00,Wunderground v.1.15,2013-02-10 20:49:00,
2013-02-10 15:50:00,31.3,29.2,30.24,East,89,0.0,5.0,92,0.00,,,0.00,Wunderground v.1.15,2013-02-10 20:50:00,
2013-02-10 15:51:00,31.2,28.9,30.23,East,89,0.0,5.0,91,0.00,,,0.00,Wunderground v.1.15,2013-02-10 20:51:00,
2013-02-10 15:54:00,31.2,29.1,30.23,East,89,0.0,5.0,92,0.00,,,0.00,Wunderground v.1.15,2013-02-10 20:54:00,
2013-02-10 15:55:00,31.2,29.1,30.23,East,89,0.0,5.0,92,0.00,,,0.00,Wunderground v.1.15,2013-02-10 20:55:00,
2013-02-10 15:56:00,31.2,28.9,30.23,East,89,0.0,5.0,91,0.00,,,0.00,Wunderground v.1.15,2013-02-10 20:56:00,
2013-02-10 15:59:00,31.3,29.2,30.23,East,89,0.0,5.0,92,0.00,,,0.00,Wunderground v.1.15,2013-02-10 20:59:00,
2013-02-10 16:02:00,31.4,29.3,30.23,East,89,0.0,2.0,92,0.00,,,0.00,Wunderground v.1.15,2013-02-10 21:02:00,
2013-02-10 16:03:00,31.3,29.2,30.23,East,89,0.0,2.0,92,0.00,,,0.00,Wunderground v.1.15,2013-02-10 21:03:00,
2013-02-10 16:06:00,31.3,29.2,30.23,East,89,0.0,2.0,92,0.00,,,0.00,Wunderground v.1.15,2013-02-10 21:06:00,
2013-02-10 16:07:00,31.4,29.3,30.23,East,89,0.0,2.0,92,0.00,,,0.00,Wunderground v.1.15,2013-02-10 21:07:00,
2013-02-10 16:09:00,31.4,29.3,30.23,East,89,0.0,2.0,92,0.00,,,0.00,Wunderground v.1.15,2013-02-10 21:09:00,
2013-02-10 16:11:00,31.4,29.3,30.23,East,89,0.0,2.0,92,0.00,,,0.00,Wunderground v.1.15,2013-02-10 21:11:00,
2013-02-10 16:12:00,31.4,29.3,30.23,East,89,0.0,2.0,92,0.00,,,0.00,Wunderground v.1.15,2013-02-10 21:12:00,
2013-02-10 16:14:00,31.4,29.3,30.23,East,89,0.0,2.0,92,0.00,,,0.00,Wunderground v.1.15,2013-02-10 21:14:00,
2013-02-10 16:17:00,31.5,29.2,30.23,East,89,0.0,2.0,91,0.00,,,0.00,Wunderground v.1.15,2013-02-10 21:17:00,
2013-02-10 16:19:00,31.5,29.4,30.23,East,89,0.0,2.0,92,0.00,,,0.00,Wunderground v.1.15,2013-02-10 21:19:00,
2013-02-10 16:22:00,31.5,29.4,30.23,East,89,0.0,2.0,92,0.00,,,0.00,Wunderground v.1.15,2013-02-10 21:22:00,
2013-02-10 16:23:00,31.6,29.5,30.23,East,89,0.0,2.0,92,0.00,,,0.00,Wunderground v.1.15,2013-02-10 21:23:00,
2013-02-10 16:24:00,31.6,29.5,30.23,East,89,0.0,2.0,92,0.00,,,0.00,Wunderground v.1.15,2013-02-10 21:24:00,
2013-02-10 16:29:00,31.4,29.3,30.22,East,89,0.0,2.0,92,0.00,,,0.00,Wunderground v.1.15,2013-02-10 21:29:00,
2013-02-10 16:30:00,31.4,29.3,30.22,East,89,0.0,2.0,92,0.00,,,0.00,Wunderground v.1.15,2013-02-10 21:30:00,
2013-02-10 16:35:00,31.4,29.6,30.22,East,89,0.0,2.0,93,0.00,,,0.00,Wunderground v.1.15,2013-02-10 21:35:00,
2013-02-10 16:36:00,31.4,29.6,30.22,East,89,0.0,2.0,93,0.00,,,0.00,Wunderground v.1.15,2013-02-10 21:36:00,
2013-02-10 16:37:00,31.4,29.6,30.22,East,89,0.0,2.0,93,0.00,,,0.00,Wunderground v.1.15,2013-02-10 21:37:00,
2013-02-10 16:41:00,31.4,29.3,30.23,East,89,0.0,2.0,92,0.00,,,0.00,Wunderground v.1.15,2013-02-10 21:41:00,
2013-02-10 16:42:00,31.4,29.3,30.23,East,89,0.0,2.0,92,0.00,,,0.00,Wunderground v.1.15,2013-02-10 21:42:00,
2013-02-10 16:43:00,31.3,29.2,30.23,East,89,0.0,2.0,92,0.00,,,0.00,Wunderground v.1.15,2013-02-10 21:43:00,
2013-02-10 16:46:00,30.8,28.2,30.23,East,89,0.0,2.0,90,0.00,,,0.00,Wunderground v.1.15,2013-02-10 21:46:00,
2013-02-10 16:47:00,30.5,27.9,30.23,East,89,0.0,2.0,90,0.00,,,0.00,Wunderground v.1.15,2013-02-10 21:47:00,
2013-02-10 16:51:00,30.0,27.2,30.23,East,89,0.0,2.0,89,0.00,,,0.00,Wunderground v.1.15,2013-02-10 21:51:00,
2013-02-10 16:52:00,29.8,27.0,30.23,East,89,0.0,2.0,89,0.00,,,0.00,Wunderground v.1.15,2013-02-10 21:52:00,
2013-02-10 16:53:00,29.7,26.9,30.23,East,89,0.0,2.0,89,0.00,,,0.00,Wunderground v.1.15,2013-02-10 21:53:00,
2013-02-10 16:57:00,29.5,26.9,30.23,East,89,0.0,2.0,90,0.00,,,0.00,Wunderground v.1.15,2013-02-10 21:57:00,
2013-02-10 16:59:00,29.5,27.2,30.23,East,89,0.0,2.0,91,0.00,,,0.00,Wunderground v.1.15,2013-02-10 21:59:00,
2013-02-10 17:00:00,29.5,27.2,30.23,East,89,0.0,1.0,91,0.00,,,0.00,Wunderground v.1.15,2013-02-10 22:00:00,
2013-02-10 17:06:00,29.6,27.6,30.22,East,89,0.0,1.0,92,0.00,,,0.00,Wunderground v.1.15,2013-02-10 22:06:00,
2013-02-10 17:07:00,29.6,27.6,30.22,East,89,0.0,1.0,92,0.00,,,0.00,Wunderground v.1.15,2013-02-10 22:07:00,
2013-02-10 17:11:00,29.5,27.5,30.23,East,89,0.0,2.0,92,0.00,,,0.00,Wunderground v.1.15,2013-02-10 22:11:00,
2013-02-10 17:12:00,29.4,27.4,30.23,East,89,0.0,2.0,92,0.00,,,0.00,Wunderground v.1.15,2013-02-10 22:12:00,
2013-02-10 17:14:00,29.3,27.3,30.23,East,89,1.0,2.0,92,0.00,,,0.00,Wunderground v.1.15,2013-02-10 22:14:00,
2013-02-10 17:16:00,29.2,27.2,30.23,East,89,1.0,2.0,92,0.00,,,0.00,Wunderground v.1.15,2013-02-10 22:16:00,
2013-02-10 17:18:00,29.2,27.2,30.23,East,89,1.0,2.0,92,0.00,,,0.00,Wunderground v.1.15,2013-02-10 22:18:00,
2013-02-10 17:19:00,29.1,27.1,30.22,East,89,1.0,2.0,92,0.00,,,0.00,Wunderground v.1.15,2013-02-10 22:19:00,
2013-02-10 17:21:00,29.1,27.1,30.22,East,89,1.0,1.0,92,0.00,,,0.00,Wunderground v.1.15,2013-02-10 22:21:00,
2013-02-10 17:23:00,29.1,27.1,30.22,East,89,0.0,1.0,92,0.00,,,0.00,Wunderground v.1.15,2013-02-10 22:23:00,
2013-02-10 17:24:00,29.2,27.4,30.22,East,89,0.0,1.0,93,0.00,,,0.00,Wunderground v.1.15,2013-02-10 22:24:00,
2013-02-10 17:26:00,29.2,27.4,30.22,East,89,0.0,1.0,93,0.00,,,0.00,Wunderground v.1.15,2013-02-10 22:26:00,
2013-02-10 17:30:00,29.1,27.1,30.22,East,89,0.0,1.0,92,0.00,,,0.00,Wunderground v.1.15,2013-02-10 22:30:00,
2013-02-10 17:32:00,29.2,27.2,30.22,East,89,0.0,1.0,92,0.00,,,0.00,Wunderground v.1.15,2013-02-10 22:32:00,
2013-02-10 17:33:00,29.2,27.4,30.22,East,89,0.0,1.0,93,0.00,,,0.00,Wunderground v.1.15,2013-02-10 22:33:00,
2013-02-10 17:34:00,29.2,27.4,30.22,East,89,0.0,1.0,93,0.00,,,0.00,Wunderground v.1.15,2013-02-10 22:34:00,
2013-02-10 17:37:00,29.2,27.4,30.22,East,89,0.0,1.0,93,0.00,,,0.00,Wunderground v.1.15,2013-02-10 22:37:00,
2013-02-10 17:38:00,29.0,27.2,30.22,East,89,0.0,1.0,93,0.00,,,0.00,Wunderground v.1.15,2013-02-10 22:38:00,
2013-02-10 17:43:00,27.7,24.6,30.22,East,89,0.0,1.0,88,0.00,,,0.00,Wunderground v.1.15,2013-02-10 22:43:00,
2013-02-10 17:44:00,27.5,24.4,30.22,East,89,0.0,1.0,88,0.00,,,0.00,Wunderground v.1.15,2013-02-10 22:44:00,
2013-02-10 17:48:00,27.2,24.7,30.23,SSW,196,1.0,2.0,90,0.00,,,0.00,Wunderground v.1.15,2013-02-10 22:48:00,
2013-02-10 17:49:00,27.2,24.7,30.23,SSW,199,1.0,2.0,90,0.00,,,0.00,Wunderground v.1.15,2013-02-10 22:49:00,
2013-02-10 17:54:00,27.3,25.0,30.23,SW,215,1.0,1.0,91,0.00,,,0.00,Wunderground v.1.15,2013-02-10 22:54:00,
2013-02-10 17:55:00,27.3,25.0,30.23,SW,215,1.0,1.0,91,0.00,,,0.00,Wunderground v.1.15,2013-02-10 22:55:00,
2013-02-10 17:57:00,27.3,25.0,30.23,SW,219,1.0,2.0,91,0.00,,,0.00,Wunderground v.1.15,2013-02-10 22:57:00,
2013-02-10 17:59:00,27.3,25.0,30.23,SW,220,1.0,2.0,91,0.00,,,0.00,Wunderground v.1.15,2013-02-10 22:59:00,
2013-02-10 18:00:00,27.2,24.9,30.23,WSW,247,1.0,3.0,91,0.00,,,0.00,Wunderground v.1.15,2013-02-10 23:00:00,
2013-02-10 18:01:00,27.2,24.9,30.23,WSW,248,1.0,3.0,91,0.00,,,0.00,Wunderground v.1.15,2013-02-10 23:01:00,
2013-02-10 18:04:00,27.1,24.8,30.23,WSW,257,2.0,4.0,91,0.00,,,0.00,Wunderground v.1.15,2013-02-10 23:04:00,
2013-02-10 18:07:00,27.0,24.7,30.23,West,263,3.0,4.0,91,0.00,,,0.00,Wunderground v.1.15,2013-02-10 23:07:00,
2013-02-10 18:08:00,27.0,24.7,30.23,West,263,3.0,4.0,91,0.00,,,0.00,Wunderground v.1.15,2013-02-10 23:08:00,
2013-02-10 18:11:00,26.8,24.5,30.23,West,261,3.0,3.0,91,0.00,,,0.00,Wunderground v.1.15,2013-02-10 23:11:00,
2013-02-10 18:13:00,26.7,24.4,30.24,West,261,3.0,3.0,91,0.00,,,0.00,Wunderground v.1.15,2013-02-10 23:13:00,
2013-02-10 18:16:00,26.7,24.4,30.24,WSW,257,2.0,3.0,91,0.00,,,0.00,Wunderground v.1.15,2013-02-10 23:16:00,
2013-02-10 18:17:00,26.7,24.4,30.24,WSW,257,2.0,3.0,91,0.00,,,0.00,Wunderground v.1.15,2013-02-10 23:17:00,
2013-02-10 18:18:00,26.7,24.4,30.24,WSW,257,1.0,3.0,91,0.00,,,0.00,Wunderground v.1.15,2013-02-10 23:18:00,
2013-02-10 18:19:00,26.7,24.4,30.24,WSW,257,1.0,3.0,91,0.00,,,0.00,Wunderground v.1.15,2013-02-10 23:19:00,
2013-02-10 18:24:00,26.6,24.6,30.24,WSW,257,1.0,3.0,92,0.00,,,0.00,Wunderground v.1.15,2013-02-10 23:24:00,
2013-02-10 18:25:00,26.6,24.6,30.24,WSW,257,1.0,3.0,92,0.00,,,0.00,Wunderground v.1.15,2013-02-10 23:25:00,
2013-02-10 18:26:00,26.7,24.7,30.24,WSW,257,1.0,3.0,92,0.00,,,0.00,Wunderground v.1.15,2013-02-10 23:26:00,
2013-02-10 18:29:00,26.5,24.5,30.24,WSW,257,0.0,3.0,92,0.00,,,0.00,Wunderground v.1.15,2013-02-10 23:29:00,
2013-02-10 18:30:00,26.4,24.4,30.24,WSW,257,0.0,3.0,92,0.00,,,0.00,Wunderground v.1.15,2013-02-10 23:30:00,
2013-02-10 18:32:00,26.2,23.9,30.24,WSW,257,0.0,3.0,91,0.00,,,0.00,Wunderground v.1.15,2013-02-10 23:32:00,
2013-02-10 18:36:00,26.2,23.9,30.24,WSW,257,0.0,3.0,91,0.00,,,0.00,Wunderground v.1.15,2013-02-10 23:36:00,
2013-02-10 18:37:00,26.2,23.9,30.24,WSW,257,0.0,3.0,91,0.00,,,0.00,Wunderground v.1.15,2013-02-10 23:37:00,
2013-02-10 18:40:00,26.2,24.2,30.24,WSW,257,0.0,3.0,92,0.00,,,0.00,Wunderground v.1.15,2013-02-10 23:40:00,
2013-02-10 18:42:00,26.2,24.2,30.24,WSW,257,0.0,3.0,92,0.00,,,0.00,Wunderground v.1.15,2013-02-10 23:42:00,
2013-02-10 18:43:00,26.2,24.2,30.24,WSW,257,0.0,3.0,92,0.00,,,0.00,Wunderground v.1.15,2013-02-10 23:43:00,
2013-02-10 18:44:00,26.2,24.2,30.24,WSW,257,0.0,3.0,92,0.00,,,0.00,Wunderground v.1.15,2013-02-10 23:44:00,
2013-02-10 18:48:00,26.2,24.2,30.24,WSW,257,0.0,3.0,92,0.00,,,0.00,Wunderground v.1.15,2013-02-10 23:48:00,
2013-02-10 18:49:00,26.1,24.1,30.24,WSW,257,0.0,3.0,92,0.00,,,0.00,Wunderground v.1.15,2013-02-10 23:49:00,
2013-02-10 18:54:00,26.0,24.0,30.24,WSW,257,0.0,3.0,92,0.00,,,0.00,Wunderground v.1.15,2013-02-10 23:54:00,
2013-02-10 18:55:00,26.0,24.0,30.24,WSW,257,0.0,3.0,92,0.00,,,0.00,Wunderground v.1.15,2013-02-10 23:55:00,
2013-02-10 18:57:00,25.9,23.9,30.24,WSW,257,0.0,3.0,92,0.00,,,0.00,Wunderground v.1.15,2013-02-10 23:57:00,
2013-02-10 18:59:00,25.8,23.8,30.24,WSW,257,0.0,3.0,92,0.00,,,0.00,Wunderground v.1.15,2013-02-10 23:59:00,
2013-02-10 19:04:00,25.3,23.3,30.24,WSW,257,0.0,0.0,92,0.00,,,0.00,Wunderground v.1.15,2013-02-11 00:04:00,
2013-02-10 19:06:00,25.2,23.2,30.24,WSW,257,0.0,0.0,92,0.00,,,0.00,Wunderground v.1.15,2013-02-11 00:06:00,
2013-02-10 19:07:00,25.2,23.2,30.24,WSW,257,0.0,0.0,92,0.00,,,0.00,Wunderground v.1.15,2013-02-11 00:07:00,
2013-02-10 19:09:00,25.2,23.2,30.24,WSW,257,0.0,0.0,92,0.00,,,0.00,Wunderground v.1.15,2013-02-11 00:09:00,
2013-02-10 19:10:00,25.1,23.1,30.24,WSW,257,0.0,0.0,92,0.00,,,0.00,Wunderground v.1.15,2013-02-11 00:10:00,
2013-02-10 19:14:00,24.8,22.8,30.24,WSW,257,0.0,0.0,92,0.00,,,0.00,Wunderground v.1.15,2013-02-11 00:14:00,
2013-02-10 19:18:00,24.6,22.6,30.24,WSW,257,0.0,0.0,92,0.00,,,0.00,Wunderground v.1.15,2013-02-11 00:18:00,
2013-02-10 19:19:00,24.5,22.5,30.24,WSW,257,0.0,0.0,92,0.00,,,0.00,Wunderground v.1.15,2013-02-11 00:19:00,
2013-02-10 19:21:00,24.4,22.4,30.23,WSW,257,0.0,0.0,92,0.00,,,0.00,Wunderground v.1.15,2013-02-11 00:21:00,
2013-02-10 19:23:00,24.3,22.3,30.24,WSW,257,0.0,0.0,92,0.00,,,0.00,Wunderground v.1.15,2013-02-11 00:23:00,
2013-02-10 19:25:00,24.2,22.2,30.24,WSW,257,0.0,0.0,92,0.00,,,0.00,Wunderground v.1.15,2013-02-11 00:25:00,
2013-02-10 19:26:00,24.1,22.1,30.24,WSW,257,0.0,0.0,92,0.00,,,0.00,Wunderground v.1.15,2013-02-11 00:26:00,
2013-02-10 19:28:00,24.0,22.0,30.23,WSW,257,0.0,0.0,92,0.00,,,0.00,Wunderground v.1.15,2013-02-11 00:28:00,
2013-02-10 19:29:00,23.9,21.9,30.23,WSW,257,0.0,0.0,92,0.00,,,0.00,Wunderground v.1.15,2013-02-11 00:29:00,
2013-02-10 19:32:00,23.9,21.9,30.24,WSW,257,0.0,0.0,92,0.00,,,0.00,Wunderground v.1.15,2013-02-11 00:32:00,
2013-02-10 19:34:00,23.9,21.9,30.24,WSW,257,0.0,0.0,92,0.00,,,0.00,Wunderground v.1.15,2013-02-11 00:34:00,
2013-02-10 19:35:00,23.9,21.9,30.24,WSW,257,0.0,0.0,92,0.00,,,0.00,Wunderground v.1.15,2013-02-11 00:35:00,
2013-02-10 19:39:00,23.7,21.7,30.24,WSW,257,0.0,0.0,92,0.00,,,0.00,Wunderground v.1.15,2013-02-11 00:39:00,
2013-02-10 19:40:00,23.6,21.6,30.23,WSW,257,0.0,0.0,92,0.00,,,0.00,Wunderground v.1.15,2013-02-11 00:40:00,
2013-02-10 19:42:00,23.3,21.3,30.23,WSW,257,0.0,0.0,92,0.00,,,0.00,Wunderground v.1.15,2013-02-11 00:42:00,
2013-02-10 19:46:00,22.9,20.7,30.23,WSW,257,0.0,0.0,91,0.00,,,0.00,Wunderground v.1.15,2013-02-11 00:46:00,
2013-02-10 19:47:00,22.9,20.7,30.23,WSW,257,0.0,0.0,91,0.00,,,0.00,Wunderground v.1.15,2013-02-11 00:47:00,
2013-02-10 19:48:00,22.8,20.6,30.23,WSW,257,0.0,0.0,91,0.00,,,0.00,Wunderground v.1.15,2013-02-11 00:48:00,
2013-02-10 19:52:00,22.7,20.7,30.23,West,260,0.0,1.0,92,0.00,,,0.00,Wunderground v.1.15,2013-02-11 00:52:00,
2013-02-10 19:54:00,22.7,20.7,30.23,West,260,0.0,1.0,92,0.00,,,0.00,Wunderground v.1.15,2013-02-11 00:54:00,
2013-02-10 19:57:00,22.7,20.7,30.23,West,261,0.0,1.0,92,0.00,,,0.00,Wunderground v.1.15,2013-02-11 00:57:00,
2013-02-10 20:00:00,22.6,20.4,30.23,West,261,0.0,1.0,91,0.00,,,0.00,Wunderground v.1.15,2013-02-11 01:00:00,
2013-02-10 20:02:00,22.5,20.3,30.23,West,261,0.0,1.0,91,0.00,,,0.00,Wunderground v.1.15,2013-02-11 01:02:00,
2013-02-10 20:05:00,22.4,20.2,30.23,West,261,0.0,1.0,91,0.00,,,0.00,Wunderground v.1.15,2013-02-11 01:05:00,
2013-02-10 20:07:00,22.4,20.4,30.23,West,261,0.0,1.0,92,0.00,,,0.00,Wunderground v.1.15,2013-02-11 01:07:00,
2013-02-10 20:08:00,22.4,20.4,30.23,West,261,0.0,1.0,92,0.00,,,0.00,Wunderground v.1.15,2013-02-11 01:08:00,
2013-02-10 20:13:00,22.2,20.0,30.23,West,261,0.0,1.0,91,0.00,,,0.00,Wunderground v.1.15,2013-02-11 01:13:00,
2013-02-10 20:14:00,22.2,20.0,30.23,West,261,0.0,1.0,91,0.00,,,0.00,Wunderground v.1.15,2013-02-11 01:14:00,
2013-02-10 20:15:00,22.2,20.0,30.23,West,261,0.0,1.0,91,0.00,,,0.00,Wunderground v.1.15,2013-02-11 01:15:00,
2013-02-10 20:18:00,22.1,19.9,30.23,West,261,0.0,1.0,91,0.00,,,0.00,Wunderground v.1.15,2013-02-11 01:18:00,
2013-02-10 20:20:00,22.0,19.8,30.23,West,261,0.0,1.0,91,0.00,,,0.00,Wunderground v.1.15,2013-02-11 01:20:00,
2013-02-10 20:21:00,22.0,19.8,30.23,West,261,0.0,1.0,91,0.00,,,0.00,Wunderground v.1.15,2013-02-11 01:21:00,
2013-02-10 20:23:00,21.9,19.7,30.24,West,261,0.0,1.0,91,0.00,,,0.00,Wunderground v.1.15,2013-02-11 01:23:00,
2013-02-10 20:24:00,21.9,19.9,30.24,West,261,0.0,1.0,92,0.00,,,0.00,Wunderground v.1.15,2013-02-11 01:24:00,
2013-02-10 20:29:00,21.9,19.9,30.24,West,261,0.0,1.0,92,0.00,,,0.00,Wunderground v.1.15,2013-02-11 01:29:00,
2013-02-10 20:30:00,21.9,19.9,30.24,West,261,0.0,1.0,92,0.00,,,0.00,Wunderground v.1.15,2013-02-11 01:30:00,
2013-02-10 20:31:00,21.9,19.9,30.24,West,261,0.0,1.0,92,0.00,,,0.00,Wunderground v.1.15,2013-02-11 01:31:00,
2013-02-10 20:33:00,21.8,19.8,30.24,West,261,0.0,1.0,92,0.00,,,0.00,Wunderground v.1.15,2013-02-11 01:33:00,
2013-02-10 20:36:00,21.7,19.7,30.24,West,260,0.0,1.0,92,0.00,,,0.00,Wunderground v.1.15,2013-02-11 01:36:00,
2013-02-10 20:37:00,21.7,19.7,30.24,West,260,0.0,1.0,92,0.00,,,0.00,Wunderground v.1.15,2013-02-11 01:37:00,
2013-02-10 20:39:00,21.6,19.4,30.24,West,260,0.0,1.0,91,0.00,,,0.00,Wunderground v.1.15,2013-02-11 01:39:00,
2013-02-10 20:40:00,21.5,19.3,30.24,West,260,0.0,1.0,91,0.00,,,0.00,Wunderground v.1.15,2013-02-11 01:40:00,
2013-02-10 20:42:00,21.4,19.2,30.24,West,260,0.0,1.0,91,0.00,,,0.00,Wunderground v.1.15,2013-02-11 01:42:00,
2013-02-10 20:43:00,21.4,19.2,30.24,West,260,0.0,1.0,91,0.00,,,0.00,Wunderground v.1.15,2013-02-11 01:43:00,
2013-02-10 20:45:00,21.3,19.1,30.24,West,260,0.0,1.0,91,0.00,,,0.00,Wunderground v.1.15,2013-02-11 01:45:00,
2013-02-10 20:48:00,21.2,19.0,30.24,West,260,0.0,1.0,91,0.00,,,0.00,Wunderground v.1.15,2013-02-11 01:48:00,
2013-02-10 20:49:00,21.2,19.0,30.24,West,260,0.0,1.0,91,0.00,,,0.00,Wunderground v.1.15,2013-02-11 01:49:00,
2013-02-10 20:50:00,21.2,19.0,30.24,West,260,0.0,1.0,91,0.00,,,0.00,Wunderground v.1.15,2013-02-11 01:50:00,
2013-02-10 20:52:00,21.2,19.0,30.23,West,260,0.0,1.0,91,0.00,,,0.00,Wunderground v.1.15,2013-02-11 01:52:00,
2013-02-10 20:55:00,21.2,19.0,30.24,West,260,0.0,1.0,91,0.00,,,0.00,Wunderground v.1.15,2013-02-11 01:55:00,
2013-02-10 20:56:00,21.1,18.9,30.24,West,260,0.0,1.0,91,0.00,,,0.00,Wunderground v.1.15,2013-02-11 01:56:00,
2013-02-10 20:58:00,21.1,18.9,30.24,West,260,0.0,1.0,91,0.00,,,0.00,Wunderground v.1.15,2013-02-11 01:58:00,
2013-02-10 21:00:00,21.1,18.9,30.23,West,260,0.0,1.0,91,0.00,,,0.00,Wunderground v.1.15,2013-02-11 02:00:00,
2013-02-10 21:01:00,21.1,18.9,30.23,West,260,0.0,1.0,91,0.00,,,0.00,Wunderground v.1.15,2013-02-11 02:01:00,
2013-02-10 21:02:00,21.1,18.9,30.23,West,260,0.0,1.0,91,0.00,,,0.00,Wunderground v.1.15,2013-02-11 02:02:00,
2013-02-10 21:05:00,20.6,18.4,30.23,West,260,0.0,1.0,91,0.00,,,0.00,Wunderground v.1.15,2013-02-11 02:05:00,
2013-02-10 21:06:00,20.5,18.3,30.23,West,260,0.0,1.0,91,0.00,,,0.00,Wunderground v.1.15,2013-02-11 02:06:00,
2013-02-10 21:07:00,20.4,17.9,30.23,West,260,0.0,1.0,90,0.00,,,0.00,Wunderground v.1.15,2013-02-11 02:07:00,
2013-02-10 21:09:00,20.1,17.6,30.23,West,260,0.0,1.0,90,0.00,,,0.00,Wunderground v.1.15,2013-02-11 02:09:00,
2013-02-10 21:10:00,20.0,17.5,30.23,West,260,0.0,1.0,90,0.00,,,0.00,Wunderground v.1.15,2013-02-11 02:10:00,
2013-02-10 21:12:00,19.8,17.3,30.23,West,260,0.0,1.0,90,0.00,,,0.00,Wunderground v.1.15,2013-02-11 02:12:00,
2013-02-10 21:13:00,19.7,17.2,30.23,West,260,0.0,1.0,90,0.00,,,0.00,Wunderground v.1.15,2013-02-11 02:13:00,
2013-02-10 21:15:00,19.6,17.1,30.23,West,260,0.0,1.0,90,0.00,,,0.00,Wunderground v.1.15,2013-02-11 02:15:00,
2013-02-10 21:17:00,19.5,17.0,30.24,West,260,0.0,1.0,90,0.00,,,0.00,Wunderground v.1.15,2013-02-11 02:17:00,
2013-02-10 21:21:00,19.5,17.0,30.23,West,260,0.0,1.0,90,0.00,,,0.00,Wunderground v.1.15,2013-02-11 02:21:00,
2013-02-10 21:25:00,19.5,17.0,30.24,West,260,0.0,1.0,90,0.00,,,0.00,Wunderground v.1.15,2013-02-11 02:25:00,
2013-02-10 21:26:00,19.5,17.0,30.24,West,260,0.0,1.0,90,0.00,,,0.00,Wunderground v.1.15,2013-02-11 02:26:00,
2013-02-10 21:29:00,19.5,17.0,30.23,West,260,0.0,1.0,90,0.00,,,0.00,Wunderground v.1.15,2013-02-11 02:29:00,
2013-02-10 21:31:00,19.4,17.2,30.23,West,260,0.0,1.0,91,0.00,,,0.00,Wunderground v.1.15,2013-02-11 02:31:00,
2013-02-10 21:33:00,19.5,17.3,30.23,West,260,0.0,1.0,91,0.00,,,0.00,Wunderground v.1.15,2013-02-11 02:33:00,
2013-02-10 21:34:00,19.5,17.3,30.23,West,260,0.0,1.0,91,0.00,,,0.00,Wunderground v.1.15,2013-02-11 02:34:00,
2013-02-10 21:36:00,19.5,17.3,30.23,West,260,0.0,1.0,91,0.00,,,0.00,Wunderground v.1.15,2013-02-11 02:36:00,
2013-02-10 21:38:00,19.5,17.3,30.23,West,260,0.0,1.0,91,0.00,,,0.00,Wunderground v.1.15,2013-02-11 02:38:00,
2013-02-10 21:39:00,19.4,17.2,30.23,West,260,0.0,1.0,91,0.00,,,0.00,Wunderground v.1.15,2013-02-11 02:39:00,
2013-02-10 21:40:00,19.4,17.2,30.23,West,260,0.0,1.0,91,0.00,,,0.00,Wunderground v.1.15,2013-02-11 02:40:00,
2013-02-10 21:44:00,19.2,17.0,30.23,West,260,0.0,1.0,91,0.00,,,0.00,Wunderground v.1.15,2013-02-11 02:44:00,
2013-02-10 21:46:00,19.1,16.9,30.23,West,260,0.0,1.0,91,0.00,,,0.00,Wunderground v.1.15,2013-02-11 02:46:00,
2013-02-10 21:48:00,18.9,16.7,30.23,West,260,0.0,1.0,91,0.00,,,0.00,Wunderground v.1.15,2013-02-11 02:48:00,
2013-02-10 21:49:00,18.8,16.6,30.23,West,260,0.0,1.0,91,0.00,,,0.00,Wunderground v.1.15,2013-02-11 02:49:00,
2013-02-10 21:51:00,18.7,16.5,30.23,West,260,0.0,1.0,91,0.00,,,0.00,Wunderground v.1.15,2013-02-11 02:51:00,
2013-02-10 21:52:00,18.7,16.5,30.23,West,260,0.0,1.0,91,0.00,,,0.00,Wunderground v.1.15,2013-02-11 02:52:00,
2013-02-10 21:53:00,18.6,16.4,30.23,West,260,0.0,1.0,91,0.00,,,0.00,Wunderground v.1.15,2013-02-11 02:53:00,
2013-02-10 21:57:00,18.6,16.4,30.23,West,260,0.0,1.0,91,0.00,,,0.00,Wunderground v.1.15,2013-02-11 02:57:00,
2013-02-10 21:59:00,18.6,16.4,30.23,West,260,0.0,1.0,91,0.00,,,0.00,Wunderground v.1.15,2013-02-11 02:59:00,
2013-02-10 22:01:00,18.5,16.3,30.23,West,260,0.0,0.0,91,0.00,,,0.00,Wunderground v.1.15,2013-02-11 03:01:00,
2013-02-10 22:02:00,18.5,16.3,30.23,West,260,0.0,0.0,91,0.00,,,0.00,Wunderground v.1.15,2013-02-11 03:02:00,
2013-02-10 22:06:00,18.4,16.2,30.23,West,260,0.0,0.0,91,0.00,,,0.00,Wunderground v.1.15,2013-02-11 03:06:00,
2013-02-10 22:07:00,18.4,16.2,30.23,West,260,0.0,0.0,91,0.00,,,0.00,Wunderground v.1.15,2013-02-11 03:07:00,
2013-02-10 22:10:00,18.4,16.2,30.23,West,260,0.0,0.0,91,0.00,,,0.00,Wunderground v.1.15,2013-02-11 03:10:00,
2013-02-10 22:14:00,18.3,16.1,30.23,West,260,0.0,0.0,91,0.00,,,0.00,Wunderground v.1.15,2013-02-11 03:14:00,
2013-02-10 22:15:00,18.3,16.1,30.23,West,260,0.0,0.0,91,0.00,,,0.00,Wunderground v.1.15,2013-02-11 03:15:00,
2013-02-10 22:16:00,18.3,16.1,30.23,West,260,0.0,0.0,91,0.00,,,0.00,Wunderground v.1.15,2013-02-11 03:16:00,
2013-02-10 22:19:00,18.2,16.0,30.23,West,260,0.0,0.0,91,0.00,,,0.00,Wunderground v.1.15,2013-02-11 03:19:00,
2013-02-10 22:20:00,18.2,16.0,30.23,West,260,0.0,0.0,91,0.00,,,0.00,Wunderground v.1.15,2013-02-11 03:20:00,
2013-02-10 22:22:00,18.1,15.9,30.23,West,260,0.0,0.0,91,0.00,,,0.00,Wunderground v.1.15,2013-02-11 03:22:00,
2013-02-10 22:23:00,18.1,15.9,30.23,West,260,0.0,0.0,91,0.00,,,0.00,Wunderground v.1.15,2013-02-11 03:23:00,
2013-02-10 22:26:00,18.0,15.8,30.23,West,260,0.0,0.0,91,0.00,,,0.00,Wunderground v.1.15,2013-02-11 03:26:00,
2013-02-10 22:27:00,18.0,15.8,30.23,West,260,0.0,0.0,91,0.00,,,0.00,Wunderground v.1.15,2013-02-11 03:27:00,
2013-02-10 22:30:00,17.9,15.7,30.23,West,260,0.0,0.0,91,0.00,,,0.00,Wunderground v.1.15,2013-02-11 03:30:00,
2013-02-10 22:32:00,17.9,16.0,30.22,West,260,0.0,0.0,92,0.00,,,0.00,Wunderground v.1.15,2013-02-11 03:32:00,
2013-02-10 22:33:00,17.8,15.9,30.22,West,260,0.0,0.0,92,0.00,,,0.00,Wunderground v.1.15,2013-02-11 03:33:00,
2013-02-10 22:35:00,17.8,15.6,30.22,West,260,0.0,0.0,91,0.00,,,0.00,Wunderground v.1.15,2013-02-11 03:35:00,
2013-02-10 22:37:00,17.7,15.8,30.22,West,260,0.0,0.0,92,0.00,,,0.00,Wunderground v.1.15,2013-02-11 03:37:00,
2013-02-10 22:38:00,17.6,15.4,30.22,West,260,0.0,0.0,91,0.00,,,0.00,Wunderground v.1.15,2013-02-11 03:38:00,
2013-02-10 22:39:00,17.6,15.4,30.22,West,260,0.0,0.0,91,0.00,,,0.00,Wunderground v.1.15,2013-02-11 03:39:00,
2013-02-10 22:43:00,17.5,15.3,30.22,West,260,0.0,0.0,91,0.00,,,0.00,Wunderground v.1.15,2013-02-11 03:43:00,
2013-02-10 22:44:00,17.5,15.6,30.22,West,260,0.0,0.0,92,0.00,,,0.00,Wunderground v.1.15,2013-02-11 03:44:00,
2013-02-10 22:45:00,17.5,15.6,30.22,West,260,0.0,0.0,92,0.00,,,0.00,Wunderground v.1.15,2013-02-11 03:45:00,
2013-02-10 22:46:00,17.5,15.6,30.22,West,260,0.0,0.0,92,0.00,,,0.00,Wunderground v.1.15,2013-02-11 03:46:00,
2013-02-10 22:49:00,17.4,15.5,30.22,West,260,0.0,0.0,92,0.00,,,0.00,Wunderground v.1.15,2013-02-11 03:49:00,
2013-02-10 22:51:00,17.3,15.4,30.22,West,260,0.0,0.0,92,0.00,,,0.00,Wunderground v.1.15,2013-02-11 03:51:00,
2013-02-10 22:54:00,17.3,15.4,30.22,West,260,0.0,0.0,92,0.00,,,0.00,Wunderground v.1.15,2013-02-11 03:54:00,
2013-02-10 22:55:00,17.3,15.4,30.22,West,260,0.0,0.0,92,0.00,,,0.00,Wunderground v.1.15,2013-02-11 03:55:00,
2013-02-10 22:57:00,17.3,15.4,30.22,West,260,0.0,0.0,92,0.00,,,0.00,Wunderground v.1.15,2013-02-11 03:57:00,
2013-02-10 22:58:00,17.3,15.4,30.22,West,260,0.0,0.0,92,0.00,,,0.00,Wunderground v.1.15,2013-02-11 03:58:00,
2013-02-10 23:00:00,17.2,15.3,30.22,West,260,0.0,0.0,92,0.00,,,0.00,Wunderground v.1.15,2013-02-11 04:00:00,
2013-02-10 23:02:00,17.2,15.3,30.22,West,260,0.0,0.0,92,0.00,,,0.00,Wunderground v.1.15,2013-02-11 04:02:00,
2013-02-10 23:03:00,17.2,15.3,30.22,West,260,0.0,0.0,92,0.00,,,0.00,Wunderground v.1.15,2013-02-11 04:03:00,
2013-02-10 23:06:00,17.2,15.3,30.22,West,260,0.0,0.0,92,0.00,,,0.00,Wunderground v.1.15,2013-02-11 04:06:00,
2013-02-10 23:07:00,17.2,15.3,30.22,West,260,0.0,0.0,92,0.00,,,0.00,Wunderground v.1.15,2013-02-11 04:07:00,
2013-02-10 23:10:00,17.2,15.3,30.22,West,260,0.0,0.0,92,0.00,,,0.00,Wunderground v.1.15,2013-02-11 04:10:00,
2013-02-10 23:11:00,17.2,15.3,30.22,West,260,0.0,0.0,92,0.00,,,0.00,Wunderground v.1.15,2013-02-11 04:11:00,
2013-02-10 23:12:00,17.2,15.3,30.22,West,260,0.0,0.0,92,0.00,,,0.00,Wunderground v.1.15,2013-02-11 04:12:00,
2013-02-10 23:13:00,17.2,15.3,30.22,West,260,0.0,0.0,92,0.00,,,0.00,Wunderground v.1.15,2013-02-11 04:13:00,
2013-02-10 23:16:00,17.2,15.3,30.22,West,260,0.0,0.0,92,0.00,,,0.00,Wunderground v.1.15,2013-02-11 04:16:00,
2013-02-10 23:18:00,17.2,15.3,30.22,West,260,0.0,0.0,92,0.00,,,0.00,Wunderground v.1.15,2013-02-11 04:18:00,
2013-02-10 23:19:00,17.2,15.3,30.22,West,260,0.0,0.0,92,0.00,,,0.00,Wunderground v.1.15,2013-02-11 04:19:00,
2013-02-10 23:20:00,17.2,15.3,30.22,West,260,0.0,0.0,92,0.00,,,0.00,Wunderground v.1.15,2013-02-11 04:20:00,
2013-02-10 23:24:00,17.2,15.3,30.22,West,260,0.0,0.0,92,0.00,,,0.00,Wunderground v.1.15,2013-02-11 04:24:00,
2013-02-10 23:25:00,17.3,15.4,30.22,West,260,0.0,0.0,92,0.00,,,0.00,Wunderground v.1.15,2013-02-11 04:25:00,
2013-02-10 23:26:00,17.2,15.3,30.22,West,260,0.0,0.0,92,0.00,,,0.00,Wunderground v.1.15,2013-02-11 04:26:00,
2013-02-10 23:27:00,17.2,15.3,30.22,West,260,0.0,0.0,92,0.00,,,0.00,Wunderground v.1.15,2013-02-11 04:27:00,
2013-02-10 23:30:00,17.3,15.4,30.22,West,260,0.0,0.0,92,0.00,,,0.00,Wunderground v.1.15,2013-02-11 04:30:00,
2013-02-10 23:31:00,17.3,15.4,30.22,West,260,0.0,0.0,92,0.00,,,0.00,Wunderground v.1.15,2013-02-11 04:31:00,
2013-02-10 23:32:00,17.3,15.4,30.22,West,260,0.0,0.0,92,0.00,,,0.00,Wunderground v.1.15,2013-02-11 04:32:00,
2013-02-10 23:33:00,17.3,15.4,30.22,West,260,0.0,0.0,92,0.00,,,0.00,Wunderground v.1.15,2013-02-11 04:33:00,
2013-02-10 23:37:00,17.3,15.4,30.22,West,260,0.0,0.0,92,0.00,,,0.00,Wunderground v.1.15,2013-02-11 04:37:00,
2013-02-10 23:38:00,17.3,15.4,30.22,West,260,0.0,0.0,92,0.00,,,0.00,Wunderground v.1.15,2013-02-11 04:38:00,
2013-02-10 23:39:00,17.3,15.4,30.22,West,260,0.0,0.0,92,0.00,,,0.00,Wunderground v.1.15,2013-02-11 04:39:00,
2013-02-10 23:44:00,17.3,15.4,30.21,West,260,0.0,0.0,92,0.00,,,0.00,Wunderground v.1.15,2013-02-11 04:44:00,
2013-02-10 23:45:00,17.3,15.4,30.21,West,260,0.0,0.0,92,0.00,,,0.00,Wunderground v.1.15,2013-02-11 04:45:00,
2013-02-10 23:49:00,17.3,15.4,30.21,West,260,0.0,0.0,92,0.00,,,0.00,Wunderground v.1.15,2013-02-11 04:49:00,
2013-02-10 23:51:00,17.3,15.4,30.21,West,260,0.0,0.0,92,0.00,,,0.00,Wunderground v.1.15,2013-02-11 04:51:00,
2013-02-10 23:52:00,17.3,15.4,30.21,West,260,0.0,0.0,92,0.00,,,0.00,Wunderground v.1.15,2013-02-11 04:52:00,
2013-02-10 23:56:00,17.2,15.3,30.21,West,260,0.0,0.0,92,0.00,,,0.00,Wunderground v.1.15,2013-02-11 04:56:00,
2013-02-10 23:59:00,17.1,15.2,30.21,West,260,0.0,0.0,92,0.00,,,0.00,Wunderground v.1.15,2013-02-11 04:59:00,